GFSFLT2_prec_precacc_027.txt.gz
Total_Precipitation_Accumulation
0.00 0.00 0.00 0.00 0.00 0.00 0.00 0.01 0.02 0.02 0.02 0.01 0.02 0.00 0.00 0.01 0.03 0.06 0.06 0.09 0.13 0.18 0.23 0.32 0.41 0.44 0.49
0.00 0.00 0.00 0.00 0.00 0.00 0.01 0.02 0.01 0.00 0.00 0.00 0.00 0.00 0.01 0.02 0.05 0.09 0.12 0.15 0.19 0.22 0.24 0.24 0.27 0.32 0.35
0.01 0.00 0.00 0.03 0.04 0.01 0.00 0.00 0.00 0.00 0.00 0.00 0.01 0.01 0.02 0.04 0.07 0.10 0.13 0.12 0.10 0.09 0.10 0.11 0.13 0.16 0.20
0.12 0.13 0.13 0.07 0.03 0.01 0.00 0.00 0.00 0.00 0.00 0.01 0.02 0.04 0.05 0.05 0.03 0.02 0.01 0.02 0.03 0.06 0.08 0.10 0.10 0.08 0.08
0.30 0.23 0.10 0.02 0.00 0.00 0.01 0.02 0.02 0.01 0.01 0.02 0.03 0.02 0.00 0.00 0.00 0.01 0.02 0.06 0.10 0.13 0.15 0.15 0.15 0.14 0.13
0.33 0.12 0.01 0.00 0.01 0.05 0.16 0.14 0.08 0.00 0.03 0.02 0.00 0.00 0.00 0.00 0.02 0.03 0.04 0.05 0.05 0.09 0.12 0.12 0.12 0.14 0.15
0.03 0.01 0.02 0.05 0.23 0.22 0.11 0.09 0.05 0.01 0.05 0.07 0.01 0.01 0.01 0.01 0.01 0.01 0.03 0.04 0.06 0.09 0.11 0.12 0.12 0.10 0.08
0.01 0.03 0.08 0.09 0.08 0.08 0.07 0.09 0.05 0.01 0.03 0.14 0.02 0.01 0.00 0.00 0.01 0.01 0.03 0.12 0.18 0.19 0.20 0.20 0.17 0.15 0.13
0.07 0.05 0.01 0.00 0.01 0.13 0.20 0.18 0.12 0.01 0.01 0.09 0.04 0.02 0.01 0.00 0.00 0.04 0.06 0.07 0.05 0.06 0.07 0.09 0.10 0.11 0.13
0.01 0.00 0.00 0.00 0.01 0.04 0.19 0.50 0.22 0.15 0.01 0.24 0.14 0.09 0.31 0.03 0.01 0.02 0.01 0.01 0.05 0.05 0.05 0.07 0.08 0.12 0.15
0.00 0.00 0.00 0.01 0.01 0.01 0.07 0.44 0.63 0.38 0.02 0.44 0.48 0.09 0.23 0.09 0.01 0.01 0.01 0.08 0.17 0.16 0.18 0.23 0.24 0.29 0.35
0.01 0.01 0.02 0.02 0.01 0.01 0.02 0.06 0.19 0.46 0.17 0.30 0.72 0.29 0.41 0.20 0.03 0.01 0.01 0.13 0.38 0.50 0.51 0.52 0.53 0.47 0.44
0.05 0.03 0.03 0.03 0.03 0.03 0.02 0.01 0.03 0.04 0.08 0.18 0.42 0.33 0.35 0.31 0.16 0.04 0.17 0.17 0.44 0.69 0.52 0.44 0.48 0.52 0.48
0.09 0.04 0.02 0.03 0.05 0.07 0.14 0.06 0.14 0.05 0.05 0.09 0.20 0.33 0.29 0.11 0.22 0.18 0.20 0.42 0.39 0.46 0.56 0.47 0.47 0.59 0.56
0.10 0.09 0.05 0.04 0.05 0.05 0.17 0.22 0.24 0.16 0.10 0.06 0.06 0.08 0.14 0.20 0.21 0.17 0.25 0.31 0.51 0.70 0.65 0.52 0.62 0.92 0.80
0.08 0.09 0.14 0.13 0.14 0.09 0.15 0.22 0.25 0.16 0.18 0.13 0.10 0.07 0.08 0.11 0.22 0.37 0.38 0.45 0.60 0.66 0.66 0.67 0.72 0.89 0.70
0.13 0.17 0.21 0.15 0.13 0.14 0.15 0.16 0.13 0.13 0.16 0.19 0.16 0.21 0.22 0.13 0.14 0.46 0.62 0.59 0.58 0.54 0.59 0.65 0.84 0.99 0.71

GFSFLT2_prec_precacc_033.txt.gz
Total_Precipitation_Accumulation
0.00 0.00 0.00 0.00 0.00 0.00 0.00 0.01 0.02 0.02 0.02 0.01 0.02 0.00 0.00 0.01 0.03 0.06 0.06 0.09 0.15 0.19 0.26 0.38 0.49 0.53 0.59
0.00 0.00 0.00 0.00 0.00 0.00 0.01 0.02 0.01 0.00 0.00 0.00 0.00 0.00 0.01 0.02 0.06 0.09 0.12 0.15 0.20 0.24 0.27 0.26 0.28 0.35 0.40
0.01 0.00 0.00 0.03 0.04 0.01 0.00 0.00 0.00 0.00 0.00 0.00 0.01 0.01 0.02 0.04 0.07 0.10 0.13 0.12 0.11 0.09 0.10 0.11 0.13 0.17 0.22
0.12 0.13 0.13 0.07 0.03 0.01 0.00 0.00 0.00 0.00 0.00 0.01 0.02 0.04 0.05 0.05 0.03 0.02 0.01 0.02 0.03 0.06 0.08 0.11 0.11 0.10 0.10
0.30 0.24 0.11 0.03 0.00 0.00 0.01 0.02 0.02 0.01 0.01 0.02 0.03 0.02 0.00 0.00 0.00 0.01 0.02 0.06 0.10 0.13 0.15 0.16 0.16 0.16 0.15
0.34 0.14 0.02 0.00 0.01 0.05 0.16 0.14 0.09 0.00 0.03 0.02 0.00 0.00 0.00 0.00 0.02 0.03 0.04 0.05 0.06 0.09 0.12 0.13 0.13 0.15 0.16
0.04 0.01 0.02 0.05 0.23 0.23 0.13 0.12 0.07 0.01 0.05 0.07 0.01 0.01 0.01 0.01 0.01 0.01 0.03 0.04 0.06 0.09 0.12 0.13 0.12 0.11 0.10
0.01 0.03 0.08 0.09 0.08 0.15 0.13 0.10 0.05 0.01 0.03 0.14 0.02 0.01 0.00 0.00 0.01 0.01 0.03 0.12 0.18 0.19 0.20 0.20 0.17 0.15 0.14
0.07 0.05 0.02 0.01 0.01 0.13 0.20 0.19 0.12 0.01 0.01 0.09 0.04 0.02 0.01 0.00 0.00 0.04 0.06 0.07 0.05 0.06 0.07 0.09 0.10 0.12 0.14
0.01 0.00 0.00 0.00 0.01 0.04 0.19 0.54 0.25 0.17 0.01 0.27 0.15 0.11 0.34 0.03 0.01 0.02 0.01 0.01 0.05 0.05 0.05 0.07 0.08 0.12 0.16
0.00 0.00 0.00 0.01 0.01 0.01 0.07 0.47 0.71 0.42 0.02 0.49 0.57 0.10 0.28 0.11 0.01 0.01 0.01 0.08 0.17 0.16 0.18 0.23 0.25 0.29 0.38
0.01 0.01 0.02 0.02 0.01 0.01 0.02 0.06 0.20 0.48 0.17 0.31 0.85 0.33 0.48 0.25 0.03 0.01 0.01 0.13 0.38 0.50 0.51 0.52 0.53 0.47 0.45
0.05 0.03 0.03 0.03 0.03 0.03 0.02 0.01 0.03 0.04 0.08 0.18 0.46 0.37 0.42 0.37 0.18 0.04 0.17 0.17 0.44 0.69 0.52 0.44 0.48 0.52 0.49
0.09 0.04 0.02 0.03 0.05 0.07 0.15 0.06 0.16 0.05 0.05 0.09 0.21 0.36 0.37 0.14 0.24 0.20 0.20 0.42 0.39 0.46 0.56 0.47 0.47 0.59 0.57
0.10 0.10 0.06 0.05 0.05 0.05 0.18 0.24 0.28 0.17 0.11 0.06 0.06 0.09 0.15 0.21 0.27 0.18 0.25 0.31 0.51 0.70 0.66 0.56 0.62 0.92 0.80
0.09 0.10 0.16 0.14 0.15 0.10 0.16 0.25 0.27 0.17 0.18 0.14 0.10 0.09 0.09 0.11 0.25 0.43 0.43 0.45 0.60 0.66 0.67 0.73 0.75 0.89 0.70
0.15 0.18 0.23 0.17 0.14 0.15 0.15 0.17 0.14 0.13 0.16 0.19 0.18 0.28 0.30 0.15 0.14 0.46 0.73 0.64 0.59 0.55 0.60 0.67 0.88 1.00 0.71

GFSFLT2_prec_precacc_036.txt.gz
Total_Precipitation_Accumulation
0.00 0.00 0.00 0.00 0.00 0.00 0.00 0.01 0.02 0.02 0.02 0.01 0.02 0.00 0.00 0.01 0.03 0.06 0.07 0.10 0.15 0.20 0.27 0.41 0.53 0.57 0.63
0.00 0.00 0.00 0.00 0.00 0.00 0.01 0.02 0.01 0.00 0.00 0.00 0.00 0.00 0.01 0.02 0.06 0.09 0.13 0.16 0.21 0.24 0.27 0.27 0.29 0.36 0.43
0.01 0.00 0.00 0.03 0.04 0.01 0.00 0.00 0.00 0.00 0.00 0.00 0.01 0.01 0.02 0.04 0.08 0.10 0.13 0.12 0.11 0.09 0.10 0.12 0.14 0.17 0.23
0.12 0.13 0.13 0.07 0.03 0.01 0.00 0.00 0.00 0.00 0.00 0.01 0.02 0.04 0.05 0.05 0.03 0.02 0.01 0.02 0.03 0.06 0.09 0.11 0.12 0.11 0.12
0.30 0.24 0.11 0.03 0.00 0.00 0.01 0.02 0.02 0.01 0.01 0.02 0.03 0.02 0.00 0.00 0.00 0.01 0.02 0.07 0.10 0.13 0.16 0.16 0.17 0.17 0.17
0.34 0.14 0.02 0.00 0.01 0.05 0.16 0.14 0.09 0.00 0.03 0.02 0.00 0.00 0.00 0.00 0.02 0.03 0.04 0.05 0.06 0.09 0.12 0.14 0.14 0.16 0.18
0.04 0.01 0.02 0.05 0.23 0.23 0.13 0.14 0.08 0.01 0.05 0.07 0.01 0.01 0.01 0.01 0.01 0.01 0.03 0.04 0.07 0.09 0.12 0.13 0.13 0.12 0.11
0.01 0.03 0.08 0.09 0.09 0.19 0.16 0.11 0.05 0.01 0.03 0.14 0.02 0.01 0.00 0.00 0.01 0.01 0.03 0.12 0.18 0.19 0.20 0.20 0.17 0.16 0.14
0.07 0.05 0.02 0.01 0.01 0.13 0.20 0.19 0.13 0.01 0.01 0.09 0.04 0.02 0.01 0.00 0.00 0.04 0.06 0.07 0.05 0.06 0.07 0.09 0.10 0.12 0.14
0.01 0.00 0.00 0.00 0.01 0.04 0.19 0.55 0.25 0.19 0.01 0.28 0.16 0.11 0.35 0.03 0.01 0.02 0.01 0.01 0.05 0.05 0.05 0.07 0.08 0.12 0.16
0.00 0.00 0.00 0.01 0.01 0.01 0.07 0.47 0.73 0.44 0.02 0.51 0.61 0.11 0.30 0.12 0.01 0.01 0.01 0.08 0.17 0.16 0.18 0.23 0.25 0.29 0.38
0.01 0.01 0.02 0.02 0.01 0.01 0.02 0.06 0.20 0.48 0.17 0.31 0.90 0.34 0.51 0.27 0.03 0.01 0.01 0.13 0.38 0.50 0.51 0.52 0.53 0.47 0.46
0.05 0.03 0.03 0.03 0.03 0.03 0.02 0.01 0.03 0.04 0.08 0.18 0.47 0.39 0.45 0.40 0.19 0.05 0.17 0.17 0.44 0.69 0.52 0.44 0.48 0.52 0.49
0.09 0.04 0.02 0.03 0.05 0.07 0.15 0.06 0.16 0.05 0.05 0.09 0.21 0.37 0.39 0.15 0.26 0.22 0.20 0.43 0.39 0.46 0.56 0.47 0.47 0.59 0.57
0.11 0.11 0.06 0.05 0.05 0.05 0.18 0.25 0.29 0.17 0.11 0.06 0.06 0.09 0.15 0.22 0.29 0.19 0.25 0.31 0.51 0.70 0.67 0.57 0.62 0.92 0.80
0.09 0.10 0.16 0.15 0.16 0.10 0.16 0.25 0.28 0.17 0.18 0.14 0.10 0.10 0.09 0.11 0.26 0.45 0.45 0.45 0.60 0.67 0.67 0.75 0.76 0.89 0.70
0.15 0.18 0.24 0.18 0.14 0.15 0.15 0.17 0.15 0.13 0.16 0.19 0.19 0.31 0.33 0.16 0.14 0.46 0.80 0.69 0.60 0.55 0.60 0.67 0.89 1.00 0.71

GFSFLT2_prec_precacc_039.txt.gz
Total_Precipitation_Accumulation
0.00 0.00 0.00 0.00 0.00 0.00 0.00 0.01 0.02 0.02 0.02 0.01 0.02 0.00 0.01 0.01 0.03 0.06 0.07 0.10 0.16 0.21 0.28 0.42 0.55 0.59 0.65
0.00 0.00 0.00 0.00 0.00 0.00 0.01 0.02 0.01 0.00 0.00 0.00 0.00 0.00 0.01 0.02 0.06 0.09 0.13 0.16 0.21 0.25 0.27 0.27 0.29 0.36 0.43
0.01 0.00 0.00 0.03 0.04 0.01 0.00 0.00 0.00 0.00 0.00 0.00 0.01 0.01 0.02 0.05 0.08 0.10 0.13 0.12 0.11 0.09 0.10 0.12 0.14 0.17 0.23
0.12 0.13 0.13 0.07 0.03 0.01 0.00 0.00 0.00 0.00 0.00 0.01 0.02 0.04 0.05 0.05 0.03 0.02 0.01 0.02 0.03 0.06 0.09 0.11 0.12 0.12 0.12
0.30 0.24 0.11 0.03 0.00 0.00 0.01 0.02 0.02 0.01 0.01 0.02 0.03 0.02 0.00 0.00 0.00 0.01 0.02 0.07 0.11 0.13 0.16 0.16 0.18 0.18 0.18
0.34 0.14 0.02 0.00 0.01 0.05 0.16 0.14 0.10 0.00 0.03 0.02 0.00 0.00 0.00 0.00 0.02 0.03 0.04 0.05 0.06 0.10 0.13 0.14 0.15 0.17 0.19
0.04 0.01 0.02 0.05 0.23 0.23 0.14 0.15 0.09 0.01 0.05 0.07 0.01 0.01 0.01 0.01 0.01 0.01 0.03 0.04 0.07 0.09 0.12 0.13 0.13 0.13 0.12
0.01 0.03 0.08 0.09 0.10 0.22 0.19 0.12 0.05 0.01 0.03 0.14 0.02 0.01 0.00 0.00 0.01 0.01 0.03 0.12 0.18 0.19 0.20 0.20 0.18 0.16 0.14
0.07 0.05 0.02 0.01 0.01 0.13 0.20 0.19 0.13 0.01 0.01 0.09 0.04 0.02 0.01 0.00 0.00 0.04 0.06 0.07 0.05 0.06 0.07 0.09 0.11 0.12 0.14
0.01 0.00 0.00 0.00 0.01 0.04 0.19 0.56 0.26 0.20 0.01 0.28 0.16 0.11 0.36 0.03 0.01 0.02 0.01 0.01 0.05 0.05 0.05 0.07 0.08 0.12 0.16
0.00 0.00 0.00 0.01 0.01 0.01 0.07 0.47 0.75 0.46 0.02 0.53 0.64 0.11 0.32 0.12 0.01 0.01 0.01 0.08 0.17 0.16 0.18 0.23 0.25 0.30 0.39
0.01 0.01 0.02 0.02 0.01 0.01 0.02 0.06 0.20 0.49 0.17 0.32 0.95 0.35 0.54 0.29 0.04 0.01 0.01 0.13 0.38 0.50 0.51 0.52 0.53 0.47 0.46
0.05 0.03 0.03 0.03 0.03 0.03 0.02 0.01 0.03 0.04 0.08 0.18 0.49 0.40 0.48 0.42 0.21 0.05 0.17 0.17 0.44 0.69 0.52 0.44 0.48 0.52 0.49
0.09 0.04 0.02 0.03 0.05 0.07 0.16 0.06 0.17 0.05 0.05 0.09 0.21 0.37 0.41 0.16 0.28 0.23 0.20 0.43 0.39 0.46 0.56 0.47 0.47 0.59 0.57
0.11 0.11 0.06 0.05 0.05 0.05 0.18 0.25 0.30 0.17 0.11 0.06 0.06 0.09 0.15 0.23 0.32 0.20 0.25 0.31 0.51 0.70 0.67 0.57 0.62 0.92 0.80
0.09 0.11 0.17 0.15 0.16 0.11 0.16 0.26 0.29 0.17 0.18 0.14 0.10 0.10 0.09 0.11 0.27 0.47 0.47 0.45 0.60 0.67 0.68 0.78 0.77 0.89 0.70
0.16 0.18 0.24 0.19 0.14 0.16 0.16 0.18 0.15 0.13 0.16 0.19 0.21 0.34 0.37 0.16 0.14 0.47 0.88 0.76 0.62 0.56 0.60 0.67 0.89 1.00 0.71

GFSFLT2_prec_precacc_042.txt.gz
Total_Precipitation_Accumulation
0.00 0.00 0.00 0.00 0.00 0.00 0.00 0.01 0.02 0.02 0.02 0.01 0.02 0.01 0.01 0.01 0.03 0.06 0.07 0.10 0.16 0.22 0.29 0.44 0.57 0.62 0.68
0.00 0.00 0.00 0.00 0.00 0.00 0.01 0.02 0.01 0.00 0.00 0.00 0.00 0.00 0.01 0.02 0.06 0.09 0.13 0.16 0.22 0.25 0.28 0.28 0.30 0.37 0.44
0.01 0.00 0.00 0.03 0.04 0.01 0.00 0.00 0.00 0.00 0.00 0.00 0.01 0.01 0.02 0.05 0.08 0.10 0.13 0.12 0.11 0.09 0.10 0.12 0.14 0.18 0.23
0.12 0.13 0.13 0.07 0.03 0.01 0.00 0.00 0.00 0.00 0.00 0.01 0.02 0.04 0.05 0.05 0.03 0.02 0.01 0.02 0.03 0.06 0.09 0.12 0.12 0.12 0.13
0.30 0.24 0.11 0.03 0.00 0.00 0.01 0.02 0.02 0.01 0.01 0.02 0.03 0.02 0.00 0.00 0.00 0.01 0.02 0.07 0.11 0.14 0.16 0.17 0.18 0.19 0.19
0.34 0.14 0.02 0.00 0.01 0.05 0.16 0.14 0.10 0.00 0.03 0.02 0.00 0.00 0.00 0.00 0.02 0.03 0.04 0.05 0.06 0.10 0.13 0.14 0.15 0.18 0.20
0.04 0.01 0.02 0.05 0.23 0.23 0.14 0.16 0.10 0.01 0.05 0.07 0.01 0.01 0.01 0.01 0.01 0.01 0.03 0.04 0.07 0.09 0.12 0.13 0.14 0.13 0.13
0.01 0.03 0.08 0.09 0.10 0.23 0.21 0.13 0.05 0.01 0.03 0.14 0.02 0.01 0.00 0.00 0.01 0.01 0.03 0.12 0.18 0.19 0.20 0.20 0.18 0.16 0.15
0.07 0.05 0.02 0.01 0.01 0.13 0.20 0.20 0.13 0.01 0.01 0.09 0.04 0.02 0.01 0.00 0.00 0.04 0.06 0.07 0.05 0.06 0.07 0.09 0.11 0.12 0.14
0.01 0.00 0.00 0.00 0.01 0.04 0.19 0.56 0.27 0.21 0.01 0.28 0.16 0.11 0.37 0.03 0.01 0.02 0.01 0.01 0.05 0.05 0.05 0.07 0.09 0.12 0.16
0.00 0.00 0.00 0.01 0.01 0.01 0.07 0.48 0.76 0.48 0.02 0.56 0.68 0.12 0.34 0.13 0.01 0.01 0.01 0.08 0.17 0.16 0.18 0.23 0.25 0.30 0.39
0.01 0.01 0.02 0.02 0.01 0.01 0.02 0.06 0.20 0.50 0.17 0.33 1.01 0.36 0.57 0.31 0.04 0.01 0.01 0.13 0.38 0.50 0.51 0.52 0.53 0.47 0.46
0.05 0.03 0.03 0.03 0.03 0.03 0.02 0.01 0.03 0.04 0.08 0.18 0.50 0.41 0.51 0.44 0.21 0.05 0.17 0.17 0.44 0.69 0.52 0.44 0.48 0.52 0.49
0.09 0.04 0.02 0.03 0.05 0.07 0.16 0.06 0.17 0.05 0.05 0.09 0.21 0.38 0.43 0.17 0.30 0.24 0.20 0.43 0.39 0.46 0.56 0.47 0.47 0.59 0.57
0.11 0.11 0.06 0.05 0.05 0.05 0.18 0.26 0.31 0.17 0.11 0.06 0.06 0.09 0.16 0.24 0.36 0.20 0.25 0.31 0.51 0.70 0.67 0.58 0.62 0.92 0.80
0.09 0.11 0.17 0.15 0.16 0.11 0.16 0.27 0.29 0.17 0.18 0.14 0.10 0.11 0.09 0.11 0.28 0.50 0.49 0.45 0.60 0.67 0.69 0.81 0.79 0.89 0.70
0.16 0.18 0.25 0.19 0.15 0.16 0.16 0.18 0.15 0.14 0.16 0.19 0.22 0.37 0.40 0.16 0.14 0.48 0.95 0.81 0.63 0.57 0.60 0.67 0.90 1.00 0.71

GFSFLT2_prec_precacc_045.txt.gz
Total_Precipitation_Accumulation
0.03 0.03 0.04 0.02 0.01 0.00 0.00 0.01 0.02 0.02 0.02 0.01 0.02 0.01 0.01 0.01 0.03 0.06 0.07 0.10 0.16 0.22 0.29 0.45 0.58 0.65 0.73
0.02 0.02 0.03 0.01 0.00 0.00 0.01 0.02 0.01 0.00 0.00 0.00 0.00 0.00 0.01 0.02 0.06 0.09 0.13 0.17 0.22 0.26 0.29 0.29 0.31 0.38 0.45
0.02 0.01 0.01 0.03 0.04 0.01 0.00 0.00 0.00 0.00 0.00 0.00 0.01 0.01 0.02 0.05 0.08 0.10 0.13 0.12 0.11 0.09 0.10 0.12 0.14 0.18 0.23
0.12 0.13 0.13 0.07 0.03 0.01 0.00 0.00 0.00 0.00 0.00 0.01 0.02 0.04 0.05 0.05 0.03 0.02 0.01 0.02 0.03 0.06 0.09 0.12 0.12 0.12 0.13
0.30 0.24 0.11 0.03 0.00 0.00 0.01 0.02 0.02 0.01 0.01 0.02 0.03 0.02 0.00 0.00 0.00 0.01 0.02 0.07 0.11 0.14 0.16 0.17 0.18 0.20 0.20
0.34 0.14 0.02 0.00 0.01 0.05 0.16 0.14 0.10 0.00 0.03 0.02 0.00 0.00 0.00 0.00 0.02 0.03 0.04 0.05 0.06 0.10 0.13 0.15 0.16 0.19 0.21
0.04 0.01 0.02 0.05 0.23 0.23 0.14 0.16 0.10 0.01 0.05 0.07 0.01 0.01 0.01 0.01 0.01 0.01 0.03 0.04 0.07 0.10 0.13 0.14 0.14 0.14 0.14
0.01 0.03 0.08 0.09 0.10 0.23 0.22 0.13 0.05 0.01 0.03 0.14 0.02 0.01 0.00 0.00 0.01 0.01 0.03 0.12 0.18 0.19 0.21 0.20 0.18 0.16 0.15
0.07 0.05 0.02 0.01 0.01 0.13 0.20 0.20 0.13 0.01 0.01 0.09 0.04 0.02 0.01 0.00 0.00 0.04 0.06 0.07 0.05 0.06 0.07 0.09 0.11 0.13 0.14
0.01 0.00 0.00 0.00 0.01 0.04 0.19 0.56 0.27 0.22 0.01 0.29 0.16 0.11 0.37 0.03 0.01 0.02 0.01 0.01 0.05 0.05 0.05 0.07 0.09 0.12 0.16
0.00 0.00 0.00 0.01 0.01 0.01 0.07 0.48 0.77 0.48 0.02 0.58 0.69 0.12 0.35 0.13 0.01 0.01 0.01 0.08 0.17 0.16 0.18 0.23 0.25 0.30 0.39
0.01 0.01 0.02 0.02 0.01 0.01 0.02 0.06 0.20 0.50 0.17 0.34 1.05 0.36 0.59 0.32 0.04 0.01 0.01 0.13 0.38 0.50 0.51 0.52 0.53 0.47 0.47
0.05 0.03 0.03 0.03 0.03 0.03 0.02 0.01 0.03 0.04 0.08 0.18 0.52 0.42 0.53 0.46 0.22 0.05 0.17 0.17 0.44 0.69 0.52 0.44 0.48 0.52 0.49
0.09 0.04 0.02 0.03 0.05 0.07 0.16 0.06 0.17 0.05 0.05 0.09 0.21 0.39 0.45 0.17 0.31 0.25 0.20 0.43 0.39 0.46 0.56 0.47 0.47 0.59 0.57
0.11 0.11 0.06 0.05 0.05 0.05 0.18 0.26 0.31 0.17 0.11 0.06 0.06 0.09 0.16 0.25 0.37 0.20 0.25 0.31 0.51 0.70 0.67 0.58 0.62 0.92 0.80
0.09 0.11 0.17 0.15 0.16 0.11 0.16 0.27 0.30 0.17 0.18 0.14 0.10 0.11 0.10 0.11 0.28 0.50 0.50 0.45 0.60 0.67 0.69 0.84 0.79 0.89 0.70
0.16 0.18 0.25 0.20 0.15 0.16 0.16 0.18 0.16 0.14 0.16 0.19 0.22 0.39 0.44 0.17 0.14 0.48 1.00 0.84 0.63 0.57 0.60 0.67 0.90 1.00 0.71

GFSFLT2_prec_precacc_048.txt.gz
Total_Precipitation_Accumulation
0.10 0.11 0.10 0.07 0.05 0.03 0.01 0.02 0.02 0.02 0.02 0.01 0.02 0.01 0.01 0.01 0.03 0.06 0.07 0.10 0.16 0.22 0.30 0.45 0.59 0.67 0.76
0.12 0.12 0.10 0.06 0.03 0.01 0.01 0.02 0.01 0.00 0.00 0.00 0.00 0.00 0.01 0.02 0.06 0.09 0.13 0.17 0.22 0.26 0.30 0.30 0.33 0.40 0.47
0.07 0.04 0.02 0.03 0.04 0.01 0.00 0.00 0.00 0.00 0.00 0.00 0.01 0.01 0.02 0.05 0.08 0.10 0.13 0.12 0.11 0.09 0.11 0.12 0.14 0.18 0.24
0.13 0.14 0.13 0.07 0.03 0.01 0.00 0.00 0.00 0.00 0.00 0.01 0.02 0.04 0.05 0.05 0.03 0.02 0.01 0.02 0.03 0.06 0.10 0.12 0.12 0.12 0.13
0.31 0.24 0.11 0.03 0.00 0.00 0.01 0.02 0.02 0.01 0.01 0.02 0.03 0.02 0.00 0.00 0.00 0.01 0.02 0.07 0.11 0.14 0.16 0.17 0.19 0.20 0.21
0.34 0.14 0.02 0.00 0.01 0.05 0.16 0.14 0.10 0.00 0.03 0.02 0.00 0.00 0.00 0.00 0.02 0.03 0.04 0.05 0.06 0.10 0.13 0.15 0.16 0.19 0.22
0.04 0.01 0.02 0.05 0.23 0.23 0.14 0.16 0.10 0.01 0.05 0.07 0.01 0.01 0.01 0.01 0.01 0.01 0.03 0.04 0.07 0.10 0.13 0.14 0.14 0.14 0.14
0.01 0.03 0.08 0.09 0.10 0.23 0.22 0.13 0.05 0.01 0.03 0.14 0.02 0.01 0.00 0.00 0.01 0.01 0.03 0.12 0.18 0.19 0.21 0.21 0.18 0.17 0.16
0.07 0.05 0.02 0.01 0.01 0.13 0.20 0.20 0.13 0.01 0.01 0.09 0.04 0.02 0.01 0.00 0.00 0.04 0.06 0.07 0.05 0.06 0.07 0.09 0.11 0.13 0.14
0.01 0.00 0.00 0.00 0.01 0.04 0.19 0.56 0.28 0.22 0.01 0.29 0.16 0.12 0.38 0.03 0.01 0.02 0.01 0.01 0.05 0.05 0.05 0.07 0.09 0.12 0.16
0.00 0.00 0.00 0.01 0.01 0.01 0.07 0.48 0.77 0.49 0.02 0.60 0.70 0.12 0.36 0.13 0.01 0.01 0.01 0.08 0.17 0.16 0.18 0.23 0.25 0.30 0.39
0.01 0.01 0.02 0.02 0.01 0.01 0.02 0.06 0.21 0.50 0.17 0.35 1.08 0.37 0.60 0.33 0.04 0.01 0.01 0.13 0.38 0.50 0.51 0.52 0.53 0.47 0.47
0.05 0.03 0.03 0.03 0.03 0.03 0.02 0.01 0.03 0.04 0.08 0.18 0.52 0.42 0.54 0.47 0.23 0.05 0.17 0.17 0.44 0.69 0.52 0.44 0.48 0.52 0.49
0.09 0.04 0.02 0.03 0.05 0.07 0.16 0.06 0.17 0.05 0.05 0.09 0.21 0.40 0.46 0.18 0.31 0.26 0.20 0.43 0.39 0.46 0.56 0.47 0.47 0.60 0.57
0.11 0.11 0.06 0.05 0.05 0.05 0.18 0.26 0.32 0.18 0.11 0.06 0.06 0.09 0.16 0.25 0.38 0.21 0.25 0.31 0.51 0.70 0.68 0.59 0.62 0.92 0.80
0.10 0.11 0.17 0.15 0.16 0.11 0.16 0.27 0.30 0.18 0.19 0.14 0.11 0.12 0.10 0.11 0.29 0.50 0.50 0.46 0.60 0.67 0.70 0.85 0.80 0.89 0.70
0.16 0.19 0.25 0.20 0.15 0.16 0.16 0.19 0.16 0.14 0.16 0.19 0.22 0.41 0.47 0.18 0.14 0.48 1.01 0.85 0.63 0.57 0.60 0.68 0.91 1.00 0.71

GFSFLT2_prec_precacc_051.txt.gz
Total_Precipitation_Accumulation
0.16 0.17 0.18 0.16 0.14 0.10 0.04 0.02 0.02 0.02 0.02 0.01 0.02 0.01 0.01 0.01 0.03 0.06 0.07 0.10 0.16 0.22 0.30 0.45 0.60 0.67 0.77
0.32 0.29 0.22 0.18 0.11 0.04 0.01 0.02 0.01 0.00 0.00 0.00 0.00 0.00 0.01 0.02 0.06 0.09 0.13 0.17 0.22 0.26 0.30 0.30 0.33 0.40 0.47
0.21 0.15 0.11 0.08 0.06 0.01 0.00 0.00 0.00 0.00 0.00 0.00 0.01 0.01 0.02 0.05 0.08 0.10 0.13 0.12 0.11 0.09 0.11 0.12 0.14 0.18 0.24
0.16 0.15 0.14 0.07 0.03 0.01 0.00 0.00 0.00 0.00 0.00 0.01 0.02 0.04 0.05 0.05 0.03 0.02 0.01 0.02 0.03 0.06 0.10 0.12 0.12 0.12 0.14
0.31 0.24 0.11 0.03 0.00 0.00 0.01 0.02 0.02 0.01 0.01 0.02 0.03 0.02 0.00 0.00 0.00 0.01 0.02 0.07 0.11 0.14 0.17 0.17 0.19 0.20 0.21
0.34 0.14 0.02 0.00 0.01 0.05 0.16 0.14 0.10 0.00 0.03 0.02 0.00 0.00 0.00 0.00 0.02 0.03 0.04 0.05 0.06 0.10 0.13 0.15 0.16 0.19 0.22
0.04 0.01 0.02 0.05 0.23 0.23 0.14 0.16 0.10 0.01 0.05 0.07 0.01 0.01 0.01 0.01 0.01 0.01 0.03 0.04 0.07 0.10 0.13 0.14 0.15 0.14 0.14
0.01 0.03 0.08 0.09 0.10 0.23 0.22 0.13 0.05 0.01 0.03 0.14 0.02 0.01 0.00 0.00 0.01 0.01 0.03 0.12 0.18 0.19 0.21 0.21 0.18 0.17 0.16
0.07 0.05 0.02 0.01 0.01 0.13 0.20 0.20 0.13 0.01 0.01 0.09 0.04 0.02 0.01 0.00 0.00 0.04 0.06 0.07 0.05 0.06 0.07 0.09 0.11 0.13 0.14
0.01 0.00 0.00 0.00 0.01 0.04 0.19 0.56 0.28 0.22 0.01 0.29 0.16 0.12 0.39 0.03 0.01 0.02 0.01 0.01 0.05 0.05 0.05 0.07 0.09 0.12 0.16
0.00 0.00 0.00 0.01 0.01 0.01 0.07 0.48 0.77 0.49 0.02 0.61 0.71 0.12 0.37 0.14 0.01 0.01 0.01 0.08 0.17 0.16 0.18 0.23 0.25 0.30 0.39
0.01 0.01 0.02 0.02 0.01 0.01 0.02 0.06 0.21 0.50 0.17 0.35 1.09 0.37 0.61 0.33 0.04 0.01 0.01 0.13 0.38 0.50 0.51 0.52 0.53 0.47 0.47
0.05 0.03 0.03 0.03 0.03 0.03 0.02 0.01 0.03 0.04 0.08 0.18 0.53 0.43 0.55 0.49 0.23 0.06 0.17 0.17 0.44 0.69 0.52 0.44 0.48 0.53 0.49
0.09 0.04 0.02 0.03 0.05 0.07 0.16 0.06 0.17 0.05 0.05 0.09 0.21 0.41 0.47 0.19 0.32 0.27 0.20 0.44 0.39 0.46 0.56 0.47 0.47 0.60 0.57
0.11 0.11 0.06 0.05 0.05 0.05 0.18 0.26 0.32 0.18 0.11 0.06 0.06 0.09 0.17 0.26 0.39 0.21 0.25 0.31 0.51 0.70 0.68 0.59 0.62 0.92 0.80
0.10 0.11 0.17 0.15 0.16 0.11 0.17 0.28 0.30 0.18 0.19 0.14 0.11 0.12 0.10 0.11 0.29 0.51 0.50 0.46 0.60 0.67 0.70 0.86 0.80 0.89 0.70
0.16 0.19 0.26 0.20 0.15 0.16 0.16 0.19 0.16 0.14 0.16 0.19 0.23 0.42 0.49 0.19 0.14 0.48 1.01 0.85 0.63 0.58 0.61 0.68 0.91 1.00 0.71

GFSFLT2_prec_precacc_054.txt.gz
Total_Precipitation_Accumulation
0.45 0.40 0.39 0.35 0.28 0.19 0.10 0.07 0.04 0.04 0.03 0.02 0.02 0.01 0.01 0.01 0.03 0.06 0.07 0.10 0.16 0.22 0.30 0.45 0.60 0.67 0.77
0.41 0.36 0.31 0.24 0.15 0.07 0.03 0.03 0.01 0.00 0.00 0.00 0.00 0.00 0.01 0.02 0.06 0.09 0.13 0.17 0.22 0.26 0.30 0.30 0.33 0.41 0.48
0.22 0.16 0.12 0.09 0.06 0.02 0.00 0.00 0.00 0.00 0.00 0.00 0.01 0.01 0.02 0.05 0.08 0.10 0.13 0.12 0.11 0.10 0.11 0.12 0.14 0.18 0.24
0.18 0.17 0.15 0.08 0.03 0.01 0.00 0.00 0.00 0.00 0.00 0.01 0.02 0.04 0.05 0.05 0.03 0.02 0.01 0.02 0.03 0.07 0.10 0.12 0.12 0.12 0.14
0.32 0.24 0.11 0.03 0.00 0.00 0.01 0.02 0.02 0.01 0.01 0.02 0.03 0.02 0.00 0.00 0.00 0.01 0.02 0.07 0.11 0.14 0.17 0.17 0.19 0.21 0.22
0.34 0.14 0.02 0.00 0.01 0.05 0.16 0.14 0.10 0.00 0.03 0.02 0.00 0.00 0.00 0.00 0.02 0.03 0.04 0.05 0.06 0.10 0.14 0.15 0.16 0.20 0.22
0.04 0.01 0.02 0.05 0.23 0.23 0.14 0.16 0.10 0.01 0.05 0.07 0.01 0.01 0.01 0.01 0.01 0.01 0.03 0.04 0.07 0.10 0.13 0.14 0.15 0.14 0.15
0.01 0.03 0.08 0.09 0.10 0.23 0.22 0.13 0.05 0.01 0.03 0.14 0.02 0.01 0.00 0.00 0.01 0.01 0.03 0.12 0.18 0.19 0.21 0.21 0.18 0.17 0.16
0.07 0.05 0.02 0.01 0.01 0.13 0.20 0.20 0.13 0.01 0.01 0.09 0.04 0.02 0.01 0.00 0.00 0.04 0.06 0.07 0.05 0.06 0.07 0.09 0.11 0.13 0.14
0.01 0.00 0.00 0.00 0.01 0.04 0.19 0.56 0.28 0.22 0.01 0.29 0.16 0.12 0.39 0.03 0.01 0.02 0.01 0.01 0.05 0.05 0.05 0.07 0.09 0.12 0.16
0.00 0.00 0.00 0.01 0.01 0.01 0.07 0.48 0.77 0.49 0.02 0.61 0.71 0.12 0.37 0.14 0.01 0.01 0.01 0.08 0.17 0.16 0.18 0.23 0.25 0.30 0.40
0.01 0.01 0.02 0.02 0.01 0.01 0.02 0.06 0.21 0.50 0.17 0.36 1.10 0.37 0.62 0.34 0.04 0.01 0.01 0.13 0.38 0.50 0.51 0.52 0.53 0.47 0.47
0.05 0.03 0.03 0.03 0.03 0.03 0.02 0.01 0.03 0.04 0.08 0.18 0.53 0.43 0.57 0.50 0.24 0.06 0.17 0.17 0.44 0.69 0.52 0.44 0.48 0.53 0.49
0.09 0.04 0.02 0.03 0.05 0.07 0.16 0.07 0.17 0.05 0.05 0.09 0.21 0.42 0.49 0.19 0.34 0.28 0.20 0.44 0.39 0.46 0.56 0.47 0.47 0.60 0.57
0.11 0.11 0.06 0.05 0.05 0.05 0.18 0.27 0.33 0.18 0.11 0.06 0.06 0.09 0.18 0.27 0.40 0.21 0.25 0.31 0.51 0.70 0.68 0.60 0.62 0.92 0.80
0.10 0.11 0.17 0.15 0.17 0.11 0.17 0.28 0.31 0.18 0.19 0.14 0.11 0.13 0.10 0.11 0.29 0.51 0.50 0.46 0.60 0.67 0.70 0.88 0.80 0.89 0.70
0.16 0.19 0.26 0.21 0.16 0.17 0.16 0.19 0.17 0.14 0.16 0.19 0.23 0.43 0.51 0.20 0.14 0.48 1.01 0.85 0.63 0.58 0.61 0.68 0.91 1.00 0.71

GFSFLT2_prec_precacc_060.txt.gz
Total_Precipitation_Accumulation
0.81 0.78 0.75 0.70 0.64 0.49 0.35 0.22 0.12 0.09 0.07 0.05 0.04 0.03 0.03 0.02 0.04 0.06 0.07 0.10 0.16 0.22 0.30 0.45 0.60 0.67 0.77
1.03 0.94 0.77 0.57 0.37 0.18 0.08 0.04 0.02 0.02 0.03 0.02 0.02 0.02 0.01 0.02 0.06 0.09 0.13 0.17 0.22 0.26 0.30 0.30 0.33 0.41 0.48
0.27 0.21 0.17 0.15 0.09 0.03 0.01 0.00 0.00 0.01 0.01 0.00 0.01 0.01 0.02 0.05 0.08 0.10 0.13 0.12 0.11 0.10 0.11 0.12 0.14 0.18 0.24
0.19 0.19 0.16 0.09 0.04 0.01 0.00 0.00 0.00 0.00 0.00 0.01 0.02 0.04 0.05 0.05 0.03 0.02 0.01 0.02 0.03 0.07 0.10 0.12 0.12 0.12 0.14
0.32 0.25 0.12 0.03 0.00 0.00 0.01 0.02 0.02 0.01 0.01 0.02 0.03 0.02 0.00 0.00 0.00 0.01 0.02 0.07 0.11 0.14 0.17 0.17 0.19 0.21 0.22
0.34 0.14 0.02 0.00 0.01 0.05 0.16 0.14 0.10 0.00 0.03 0.02 0.00 0.00 0.00 0.00 0.02 0.03 0.04 0.05 0.06 0.10 0.14 0.15 0.17 0.20 0.22
0.04 0.01 0.02 0.05 0.23 0.23 0.14 0.16 0.10 0.01 0.05 0.07 0.01 0.01 0.01 0.01 0.01 0.01 0.03 0.04 0.07 0.10 0.13 0.14 0.15 0.15 0.15
0.01 0.03 0.08 0.09 0.10 0.23 0.22 0.13 0.05 0.01 0.03 0.14 0.02 0.01 0.00 0.00 0.01 0.01 0.03 0.12 0.18 0.19 0.21 0.21 0.18 0.17 0.16
0.07 0.05 0.02 0.01 0.01 0.13 0.20 0.20 0.13 0.01 0.01 0.09 0.04 0.02 0.01 0.00 0.00 0.04 0.06 0.07 0.05 0.06 0.07 0.09 0.11 0.13 0.14
0.01 0.00 0.00 0.00 0.01 0.04 0.19 0.56 0.28 0.22 0.01 0.29 0.16 0.12 0.39 0.03 0.01 0.02 0.01 0.01 0.05 0.05 0.05 0.07 0.09 0.12 0.16
0.00 0.00 0.00 0.01 0.01 0.01 0.07 0.48 0.77 0.49 0.02 0.61 0.71 0.13 0.38 0.14 0.01 0.01 0.01 0.08 0.17 0.16 0.18 0.23 0.25 0.30 0.40
0.01 0.01 0.02 0.02 0.01 0.01 0.02 0.06 0.21 0.51 0.17 0.36 1.11 0.37 0.63 0.36 0.05 0.01 0.01 0.13 0.38 0.50 0.51 0.52 0.53 0.47 0.47
0.05 0.03 0.03 0.03 0.03 0.03 0.02 0.01 0.03 0.04 0.08 0.18 0.54 0.44 0.60 0.53 0.25 0.06 0.17 0.17 0.44 0.69 0.52 0.44 0.48 0.53 0.49
0.09 0.04 0.02 0.03 0.05 0.07 0.16 0.07 0.18 0.05 0.05 0.09 0.21 0.43 0.52 0.21 0.35 0.29 0.20 0.44 0.39 0.46 0.56 0.47 0.47 0.60 0.57
0.11 0.11 0.06 0.05 0.05 0.05 0.19 0.27 0.33 0.18 0.11 0.06 0.06 0.09 0.19 0.28 0.42 0.22 0.25 0.31 0.51 0.70 0.68 0.60 0.62 0.92 0.80
0.10 0.11 0.18 0.16 0.17 0.11 0.17 0.29 0.31 0.18 0.19 0.14 0.11 0.13 0.11 0.12 0.29 0.51 0.51 0.46 0.60 0.67 0.70 0.88 0.81 0.89 0.70
0.16 0.19 0.27 0.21 0.16 0.17 0.17 0.20 0.17 0.15 0.16 0.19 0.23 0.45 0.54 0.21 0.14 0.48 1.01 0.85 0.63 0.58 0.61 0.68 0.91 1.00 0.71

GFSFLT2_prec_precacc_063.txt.gz
Total_Precipitation_Accumulation
0.81 0.79 0.80 0.79 0.71 0.56 0.49 0.38 0.26 0.21 0.15 0.10 0.07 0.06 0.06 0.05 0.07 0.08 0.08 0.10 0.16 0.22 0.30 0.45 0.60 0.67 0.77
1.03 0.94 0.79 0.61 0.41 0.25 0.16 0.10 0.05 0.07 0.06 0.04 0.05 0.04 0.03 0.04 0.07 0.09 0.13 0.17 0.22 0.26 0.30 0.30 0.33 0.41 0.48
0.27 0.22 0.20 0.18 0.12 0.06 0.03 0.02 0.02 0.03 0.03 0.02 0.03 0.02 0.02 0.05 0.08 0.10 0.13 0.12 0.11 0.10 0.11 0.12 0.14 0.18 0.24
0.20 0.19 0.16 0.09 0.05 0.02 0.01 0.01 0.00 0.00 0.00 0.01 0.02 0.04 0.05 0.05 0.03 0.02 0.01 0.02 0.03 0.07 0.10 0.12 0.12 0.12 0.14
0.32 0.25 0.12 0.03 0.01 0.00 0.02 0.02 0.02 0.01 0.01 0.02 0.03 0.02 0.00 0.00 0.00 0.01 0.02 0.07 0.11 0.14 0.17 0.17 0.19 0.21 0.22
0.34 0.14 0.02 0.00 0.01 0.05 0.16 0.14 0.10 0.00 0.03 0.02 0.00 0.00 0.00 0.00 0.02 0.03 0.04 0.05 0.06 0.10 0.14 0.15 0.17 0.20 0.22
0.04 0.01 0.02 0.05 0.23 0.23 0.14 0.16 0.10 0.01 0.05 0.07 0.01 0.01 0.01 0.01 0.01 0.01 0.03 0.04 0.07 0.10 0.13 0.14 0.15 0.15 0.15
0.01 0.03 0.08 0.09 0.10 0.23 0.22 0.13 0.05 0.01 0.03 0.14 0.02 0.01 0.00 0.00 0.01 0.01 0.03 0.12 0.18 0.19 0.21 0.21 0.18 0.17 0.16
0.07 0.05 0.02 0.01 0.01 0.13 0.20 0.20 0.13 0.01 0.01 0.09 0.04 0.02 0.01 0.00 0.00 0.04 0.06 0.07 0.05 0.06 0.07 0.09 0.11 0.13 0.14
0.01 0.00 0.00 0.00 0.01 0.04 0.19 0.56 0.28 0.22 0.01 0.29 0.16 0.12 0.39 0.03 0.01 0.02 0.01 0.01 0.05 0.05 0.05 0.07 0.09 0.12 0.16
0.00 0.00 0.00 0.01 0.01 0.01 0.07 0.48 0.77 0.49 0.02 0.61 0.71 0.13 0.38 0.14 0.01 0.01 0.01 0.08 0.17 0.16 0.18 0.23 0.25 0.30 0.40
0.01 0.01 0.02 0.02 0.01 0.01 0.02 0.06 0.21 0.51 0.17 0.36 1.12 0.38 0.63 0.36 0.05 0.01 0.01 0.13 0.38 0.50 0.51 0.52 0.53 0.47 0.47
0.05 0.03 0.03 0.03 0.03 0.03 0.02 0.01 0.03 0.04 0.08 0.18 0.54 0.45 0.61 0.53 0.26 0.06 0.17 0.17 0.44 0.69 0.52 0.44 0.48 0.53 0.49
0.09 0.04 0.02 0.03 0.05 0.07 0.16 0.07 0.18 0.05 0.05 0.09 0.21 0.44 0.53 0.22 0.36 0.29 0.20 0.44 0.39 0.46 0.56 0.47 0.47 0.60 0.57
0.11 0.11 0.06 0.05 0.05 0.05 0.19 0.27 0.34 0.18 0.11 0.06 0.06 0.09 0.19 0.29 0.44 0.22 0.25 0.31 0.51 0.70 0.68 0.60 0.62 0.92 0.80
0.10 0.11 0.18 0.16 0.17 0.11 0.17 0.29 0.32 0.18 0.19 0.14 0.11 0.13 0.11 0.12 0.29 0.51 0.51 0.46 0.60 0.67 0.70 0.89 0.81 0.89 0.70
0.16 0.20 0.27 0.21 0.16 0.17 0.17 0.20 0.17 0.15 0.16 0.19 0.23 0.45 0.55 0.21 0.14 0.48 1.01 0.85 0.63 0.58 0.61 0.68 0.91 1.00 0.71

GFSFLT2_prec_precacc_069.txt.gz
Total_Precipitation_Accumulation
0.81 0.79 0.80 0.80 0.73 0.57 0.50 0.41 0.38 0.42 0.38 0.31 0.24 0.22 0.19 0.18 0.17 0.17 0.16 0.17 0.22 0.26 0.32 0.47 0.61 0.68 0.78
1.03 0.94 0.79 0.61 0.43 0.26 0.17 0.11 0.07 0.12 0.10 0.08 0.09 0.09 0.07 0.08 0.11 0.12 0.14 0.18 0.23 0.27 0.31 0.31 0.34 0.41 0.48
0.27 0.22 0.20 0.18 0.13 0.06 0.04 0.02 0.02 0.05 0.05 0.03 0.04 0.03 0.04 0.05 0.09 0.10 0.13 0.12 0.11 0.10 0.11 0.12 0.14 0.18 0.24
0.20 0.19 0.16 0.09 0.05 0.02 0.02 0.01 0.01 0.00 0.02 0.01 0.02 0.04 0.05 0.05 0.03 0.02 0.01 0.02 0.03 0.07 0.10 0.12 0.12 0.12 0.14
0.32 0.25 0.12 0.03 0.01 0.01 0.02 0.02 0.02 0.01 0.01 0.02 0.03 0.02 0.00 0.00 0.00 0.01 0.02 0.07 0.11 0.14 0.17 0.17 0.19 0.21 0.22
0.34 0.14 0.02 0.00 0.01 0.05 0.16 0.14 0.10 0.00 0.03 0.02 0.00 0.00 0.00 0.00 0.02 0.03 0.04 0.05 0.06 0.10 0.14 0.16 0.17 0.20 0.23
0.04 0.01 0.02 0.05 0.23 0.23 0.14 0.16 0.10 0.01 0.05 0.07 0.01 0.01 0.01 0.01 0.01 0.01 0.03 0.04 0.07 0.10 0.13 0.15 0.15 0.15 0.15
0.01 0.03 0.08 0.09 0.10 0.23 0.22 0.13 0.05 0.01 0.03 0.14 0.02 0.01 0.00 0.00 0.01 0.01 0.03 0.12 0.18 0.19 0.21 0.21 0.18 0.17 0.16
0.07 0.05 0.02 0.01 0.01 0.13 0.20 0.20 0.13 0.01 0.01 0.09 0.04 0.02 0.01 0.00 0.00 0.04 0.06 0.07 0.05 0.06 0.07 0.09 0.11 0.13 0.14
0.01 0.00 0.00 0.00 0.01 0.04 0.19 0.56 0.28 0.22 0.01 0.29 0.16 0.12 0.39 0.03 0.01 0.02 0.01 0.01 0.05 0.05 0.05 0.07 0.09 0.12 0.16
0.00 0.00 0.00 0.01 0.01 0.01 0.07 0.48 0.77 0.49 0.02 0.61 0.72 0.13 0.38 0.14 0.01 0.01 0.01 0.08 0.17 0.16 0.18 0.23 0.25 0.30 0.40
0.01 0.01 0.02 0.02 0.01 0.01 0.02 0.06 0.21 0.51 0.17 0.36 1.13 0.38 0.64 0.36 0.05 0.01 0.01 0.13 0.38 0.50 0.51 0.52 0.53 0.47 0.47
0.05 0.03 0.03 0.03 0.03 0.03 0.02 0.01 0.03 0.04 0.08 0.18 0.55 0.46 0.62 0.55 0.26 0.06 0.17 0.17 0.44 0.69 0.52 0.44 0.48 0.53 0.49
0.09 0.04 0.02 0.03 0.05 0.07 0.16 0.07 0.18 0.05 0.05 0.09 0.21 0.44 0.55 0.22 0.37 0.29 0.20 0.44 0.39 0.46 0.56 0.47 0.47 0.60 0.57
0.11 0.11 0.06 0.05 0.05 0.05 0.19 0.27 0.34 0.18 0.11 0.06 0.06 0.09 0.19 0.29 0.44 0.22 0.25 0.31 0.51 0.70 0.69 0.60 0.62 0.92 0.80
0.10 0.12 0.18 0.16 0.17 0.11 0.17 0.30 0.32 0.19 0.19 0.14 0.11 0.14 0.11 0.12 0.29 0.51 0.51 0.46 0.60 0.67 0.70 0.89 0.81 0.89 0.70
0.16 0.20 0.27 0.21 0.16 0.17 0.17 0.20 0.18 0.15 0.16 0.19 0.23 0.46 0.57 0.22 0.14 0.48 1.01 0.85 0.63 0.58 0.61 0.68 0.91 1.00 0.71

GFSFLT2_prec_precacc_072.txt.gz
Total_Precipitation_Accumulation
0.81 0.79 0.80 0.80 0.73 0.57 0.50 0.41 0.38 0.42 0.39 0.32 0.25 0.23 0.22 0.21 0.21 0.21 0.19 0.19 0.23 0.29 0.36 0.50 0.64 0.71 0.79
1.03 0.94 0.79 0.61 0.43 0.26 0.17 0.11 0.07 0.12 0.10 0.08 0.09 0.09 0.07 0.08 0.12 0.13 0.15 0.18 0.24 0.28 0.32 0.32 0.35 0.41 0.48
0.27 0.22 0.20 0.18 0.13 0.06 0.04 0.02 0.02 0.05 0.05 0.04 0.04 0.03 0.04 0.05 0.09 0.10 0.13 0.12 0.11 0.10 0.11 0.12 0.14 0.18 0.24
0.20 0.19 0.16 0.09 0.05 0.02 0.02 0.01 0.01 0.00 0.02 0.01 0.02 0.04 0.05 0.05 0.03 0.02 0.01 0.02 0.03 0.07 0.10 0.12 0.12 0.12 0.14
0.32 0.25 0.12 0.03 0.01 0.01 0.02 0.02 0.02 0.01 0.01 0.02 0.03 0.02 0.00 0.00 0.00 0.01 0.02 0.07 0.11 0.14 0.17 0.17 0.19 0.21 0.22
0.34 0.14 0.02 0.00 0.01 0.05 0.16 0.14 0.10 0.00 0.03 0.02 0.00 0.00 0.00 0.00 0.02 0.03 0.04 0.05 0.06 0.10 0.14 0.16 0.17 0.20 0.23
0.04 0.01 0.02 0.05 0.23 0.23 0.14 0.16 0.10 0.01 0.05 0.07 0.01 0.01 0.01 0.01 0.01 0.01 0.03 0.04 0.07 0.10 0.13 0.15 0.15 0.15 0.15
0.01 0.03 0.08 0.09 0.10 0.23 0.22 0.13 0.05 0.01 0.03 0.14 0.02 0.01 0.00 0.00 0.01 0.01 0.03 0.12 0.18 0.19 0.21 0.21 0.18 0.17 0.17
0.07 0.05 0.02 0.01 0.01 0.13 0.20 0.20 0.13 0.01 0.01 0.09 0.04 0.02 0.01 0.00 0.00 0.04 0.06 0.07 0.05 0.06 0.07 0.09 0.11 0.13 0.14
0.01 0.00 0.00 0.00 0.01 0.04 0.19 0.56 0.28 0.22 0.01 0.29 0.16 0.12 0.39 0.03 0.01 0.02 0.01 0.01 0.05 0.05 0.05 0.07 0.09 0.12 0.16
0.00 0.00 0.00 0.01 0.01 0.01 0.07 0.48 0.77 0.49 0.02 0.61 0.72 0.13 0.38 0.14 0.01 0.01 0.01 0.08 0.17 0.16 0.18 0.23 0.25 0.30 0.40
0.01 0.01 0.02 0.02 0.01 0.01 0.02 0.06 0.21 0.51 0.18 0.36 1.14 0.39 0.65 0.37 0.05 0.01 0.01 0.13 0.38 0.50 0.51 0.52 0.53 0.47 0.47
0.05 0.03 0.03 0.03 0.03 0.03 0.02 0.01 0.03 0.04 0.08 0.18 0.55 0.46 0.63 0.55 0.26 0.06 0.17 0.17 0.44 0.69 0.52 0.44 0.48 0.53 0.49
0.09 0.04 0.02 0.03 0.05 0.07 0.16 0.07 0.18 0.05 0.05 0.09 0.21 0.44 0.55 0.23 0.37 0.30 0.20 0.45 0.39 0.46 0.56 0.47 0.47 0.60 0.57
0.11 0.11 0.06 0.05 0.05 0.05 0.19 0.27 0.35 0.19 0.11 0.06 0.06 0.09 0.19 0.29 0.44 0.22 0.25 0.31 0.51 0.70 0.69 0.61 0.62 0.92 0.80
0.10 0.12 0.18 0.16 0.17 0.11 0.18 0.30 0.32 0.19 0.19 0.14 0.11 0.14 0.11 0.12 0.29 0.51 0.51 0.46 0.60 0.67 0.70 0.89 0.81 0.89 0.70
0.16 0.20 0.27 0.21 0.16 0.17 0.17 0.20 0.18 0.15 0.16 0.19 0.23 0.46 0.57 0.22 0.14 0.48 1.01 0.85 0.63 0.58 0.61 0.69 0.91 1.00 0.71

GFSFLT2_prec_precacc_075.txt.gz
Total_Precipitation_Accumulation
0.81 0.79 0.80 0.80 0.73 0.57 0.50 0.41 0.38 0.42 0.39 0.32 0.26 0.24 0.22 0.21 0.22 0.25 0.26 0.27 0.30 0.32 0.38 0.51 0.65 0.72 0.80
1.03 0.94 0.79 0.61 0.43 0.26 0.17 0.11 0.07 0.12 0.10 0.08 0.09 0.09 0.07 0.08 0.12 0.14 0.16 0.20 0.26 0.30 0.33 0.32 0.35 0.42 0.48
0.27 0.22 0.20 0.18 0.13 0.06 0.04 0.02 0.02 0.05 0.05 0.04 0.04 0.03 0.04 0.05 0.09 0.10 0.13 0.12 0.11 0.10 0.11 0.12 0.14 0.18 0.24
0.20 0.19 0.16 0.09 0.05 0.02 0.02 0.01 0.01 0.00 0.02 0.01 0.02 0.04 0.05 0.05 0.03 0.02 0.01 0.02 0.03 0.07 0.10 0.12 0.12 0.12 0.14
0.32 0.25 0.12 0.03 0.01 0.01 0.02 0.02 0.02 0.01 0.01 0.02 0.03 0.02 0.00 0.00 0.00 0.01 0.02 0.07 0.11 0.14 0.17 0.17 0.19 0.21 0.22
0.34 0.14 0.02 0.00 0.01 0.05 0.16 0.14 0.10 0.00 0.03 0.02 0.00 0.00 0.00 0.00 0.02 0.03 0.04 0.05 0.06 0.10 0.14 0.16 0.17 0.20 0.23
0.04 0.01 0.02 0.05 0.23 0.23 0.14 0.16 0.10 0.01 0.05 0.07 0.01 0.01 0.01 0.01 0.01 0.01 0.03 0.04 0.07 0.10 0.13 0.15 0.15 0.15 0.15
0.01 0.03 0.08 0.09 0.10 0.23 0.22 0.13 0.05 0.01 0.03 0.14 0.02 0.01 0.00 0.00 0.01 0.01 0.03 0.12 0.18 0.19 0.21 0.21 0.18 0.17 0.17
0.07 0.05 0.02 0.01 0.01 0.13 0.20 0.20 0.13 0.01 0.01 0.09 0.04 0.02 0.01 0.00 0.00 0.04 0.06 0.07 0.05 0.06 0.07 0.09 0.11 0.13 0.15
0.01 0.00 0.00 0.00 0.01 0.04 0.19 0.56 0.28 0.22 0.01 0.29 0.16 0.12 0.39 0.03 0.01 0.02 0.01 0.01 0.05 0.05 0.05 0.07 0.09 0.12 0.16
0.00 0.00 0.00 0.01 0.01 0.01 0.07 0.48 0.77 0.49 0.02 0.61 0.72 0.13 0.38 0.14 0.01 0.01 0.01 0.08 0.17 0.16 0.18 0.23 0.25 0.30 0.40
0.01 0.01 0.02 0.02 0.01 0.01 0.02 0.06 0.21 0.51 0.18 0.37 1.14 0.39 0.65 0.37 0.05 0.01 0.01 0.13 0.38 0.50 0.51 0.52 0.53 0.47 0.47
0.05 0.03 0.03 0.03 0.03 0.03 0.02 0.01 0.03 0.04 0.09 0.18 0.56 0.46 0.63 0.56 0.27 0.06 0.17 0.17 0.44 0.69 0.52 0.44 0.48 0.53 0.49
0.09 0.04 0.02 0.03 0.05 0.07 0.16 0.07 0.18 0.05 0.05 0.09 0.21 0.44 0.55 0.23 0.38 0.30 0.20 0.45 0.39 0.46 0.56 0.47 0.47 0.60 0.57
0.11 0.11 0.06 0.05 0.05 0.05 0.19 0.27 0.35 0.19 0.11 0.06 0.06 0.09 0.19 0.29 0.44 0.22 0.25 0.31 0.51 0.70 0.69 0.61 0.62 0.92 0.80
0.10 0.12 0.18 0.16 0.17 0.11 0.18 0.30 0.32 0.19 0.19 0.14 0.11 0.14 0.11 0.12 0.29 0.51 0.51 0.46 0.60 0.67 0.70 0.90 0.81 0.89 0.70
0.16 0.20 0.27 0.21 0.16 0.17 0.17 0.20 0.18 0.15 0.16 0.19 0.23 0.46 0.57 0.22 0.14 0.48 1.01 0.85 0.63 0.58 0.61 0.69 0.91 1.00 0.71

GFSFLT2_prec_precacc_078.txt.gz
Total_Precipitation_Accumulation
0.81 0.79 0.80 0.80 0.73 0.57 0.50 0.41 0.38 0.42 0.39 0.32 0.26 0.24 0.22 0.21 0.22 0.26 0.28 0.31 0.35 0.42 0.51 0.64 0.75 0.78 0.84
1.03 0.94 0.79 0.61 0.43 0.26 0.17 0.11 0.07 0.12 0.10 0.08 0.09 0.10 0.08 0.08 0.12 0.14 0.16 0.21 0.27 0.32 0.36 0.36 0.39 0.45 0.51
0.27 0.22 0.20 0.18 0.13 0.06 0.04 0.02 0.02 0.05 0.05 0.04 0.04 0.03 0.04 0.05 0.09 0.10 0.13 0.12 0.11 0.10 0.11 0.12 0.14 0.18 0.24
0.20 0.19 0.16 0.09 0.05 0.02 0.02 0.01 0.01 0.00 0.02 0.01 0.02 0.04 0.05 0.05 0.03 0.02 0.01 0.02 0.03 0.07 0.10 0.12 0.12 0.12 0.14
0.32 0.25 0.12 0.03 0.01 0.01 0.02 0.02 0.02 0.01 0.01 0.02 0.03 0.02 0.00 0.00 0.00 0.01 0.02 0.07 0.11 0.14 0.17 0.17 0.19 0.21 0.22
0.34 0.14 0.02 0.00 0.01 0.05 0.16 0.14 0.10 0.00 0.03 0.02 0.00 0.00 0.00 0.00 0.02 0.03 0.04 0.05 0.06 0.10 0.14 0.16 0.17 0.20 0.23
0.04 0.01 0.02 0.05 0.23 0.23 0.14 0.16 0.10 0.01 0.05 0.07 0.01 0.01 0.01 0.01 0.01 0.01 0.03 0.04 0.07 0.10 0.13 0.15 0.15 0.15 0.15
0.01 0.03 0.08 0.09 0.10 0.23 0.22 0.13 0.05 0.01 0.03 0.14 0.02 0.01 0.00 0.00 0.01 0.01 0.03 0.12 0.18 0.19 0.21 0.21 0.18 0.17 0.17
0.07 0.05 0.02 0.01 0.01 0.13 0.20 0.20 0.13 0.01 0.01 0.09 0.04 0.02 0.01 0.00 0.00 0.04 0.06 0.07 0.05 0.06 0.07 0.09 0.11 0.13 0.15
0.01 0.00 0.00 0.00 0.01 0.04 0.19 0.56 0.28 0.22 0.01 0.29 0.16 0.12 0.39 0.03 0.01 0.02 0.01 0.01 0.05 0.05 0.05 0.07 0.09 0.12 0.16
0.00 0.00 0.00 0.01 0.01 0.01 0.07 0.48 0.77 0.49 0.02 0.61 0.72 0.13 0.38 0.14 0.01 0.01 0.01 0.08 0.17 0.16 0.18 0.23 0.25 0.30 0.40
0.01 0.01 0.02 0.02 0.01 0.01 0.02 0.06 0.21 0.51 0.18 0.37 1.14 0.39 0.65 0.37 0.05 0.01 0.01 0.13 0.38 0.50 0.51 0.52 0.53 0.47 0.47
0.05 0.03 0.03 0.03 0.03 0.03 0.02 0.01 0.03 0.04 0.09 0.18 0.56 0.46 0.63 0.56 0.27 0.06 0.17 0.17 0.44 0.69 0.52 0.44 0.48 0.53 0.49
0.09 0.04 0.02 0.03 0.05 0.07 0.16 0.07 0.18 0.05 0.05 0.09 0.21 0.44 0.55 0.23 0.38 0.30 0.20 0.45 0.39 0.46 0.56 0.47 0.47 0.60 0.57
0.11 0.11 0.06 0.05 0.05 0.05 0.19 0.27 0.35 0.19 0.11 0.06 0.06 0.09 0.19 0.29 0.44 0.22 0.25 0.31 0.51 0.70 0.69 0.61 0.62 0.92 0.80
0.10 0.12 0.18 0.16 0.17 0.11 0.18 0.30 0.32 0.19 0.19 0.14 0.11 0.14 0.11 0.12 0.29 0.51 0.51 0.46 0.60 0.68 0.70 0.90 0.81 0.89 0.70
0.16 0.20 0.27 0.21 0.16 0.17 0.17 0.20 0.18 0.15 0.16 0.19 0.23 0.46 0.58 0.22 0.14 0.48 1.01 0.85 0.63 0.58 0.61 0.69 0.91 1.00 0.71

GFSFLT2_prec_precacc_081.txt.gz
Total_Precipitation_Accumulation
0.81 0.79 0.80 0.80 0.73 0.57 0.50 0.41 0.38 0.42 0.40 0.32 0.26 0.24 0.22 0.21 0.22 0.26 0.28 0.32 0.37 0.48 0.64 0.82 0.87 0.87 0.93
1.03 0.94 0.79 0.61 0.43 0.26 0.17 0.11 0.07 0.12 0.10 0.08 0.09 0.10 0.08 0.08 0.12 0.14 0.16 0.21 0.28 0.34 0.39 0.39 0.41 0.47 0.54
0.27 0.22 0.20 0.18 0.13 0.06 0.04 0.02 0.02 0.05 0.05 0.04 0.04 0.03 0.04 0.05 0.09 0.10 0.13 0.12 0.11 0.10 0.12 0.13 0.15 0.19 0.24
0.20 0.19 0.16 0.09 0.05 0.02 0.02 0.01 0.01 0.00 0.02 0.01 0.02 0.04 0.05 0.05 0.03 0.02 0.01 0.02 0.03 0.07 0.10 0.12 0.12 0.12 0.14
0.32 0.25 0.12 0.03 0.01 0.01 0.02 0.02 0.02 0.01 0.01 0.02 0.03 0.02 0.00 0.00 0.00 0.01 0.02 0.07 0.11 0.14 0.17 0.17 0.19 0.21 0.22
0.34 0.14 0.02 0.00 0.01 0.05 0.16 0.14 0.10 0.00 0.03 0.02 0.00 0.00 0.00 0.00 0.02 0.03 0.04 0.05 0.06 0.10 0.14 0.16 0.17 0.20 0.23
0.04 0.01 0.02 0.05 0.23 0.23 0.14 0.16 0.10 0.01 0.05 0.07 0.01 0.01 0.01 0.01 0.01 0.01 0.03 0.04 0.07 0.10 0.13 0.15 0.15 0.15 0.15
0.01 0.03 0.08 0.09 0.10 0.23 0.22 0.13 0.05 0.01 0.03 0.14 0.02 0.01 0.00 0.00 0.01 0.01 0.03 0.12 0.18 0.19 0.21 0.21 0.18 0.17 0.17
0.07 0.05 0.02 0.01 0.01 0.13 0.20 0.20 0.13 0.01 0.01 0.09 0.04 0.02 0.01 0.00 0.00 0.04 0.06 0.07 0.05 0.06 0.07 0.09 0.11 0.13 0.15
0.01 0.00 0.00 0.00 0.01 0.04 0.19 0.56 0.28 0.22 0.01 0.29 0.16 0.12 0.39 0.03 0.01 0.02 0.01 0.01 0.05 0.05 0.05 0.07 0.09 0.12 0.16
0.00 0.00 0.00 0.01 0.01 0.01 0.07 0.48 0.77 0.49 0.02 0.61 0.72 0.13 0.38 0.14 0.01 0.01 0.01 0.08 0.17 0.16 0.18 0.23 0.25 0.30 0.40
0.01 0.01 0.02 0.02 0.01 0.01 0.02 0.06 0.21 0.51 0.18 0.37 1.14 0.39 0.65 0.37 0.05 0.01 0.01 0.13 0.38 0.50 0.51 0.52 0.53 0.47 0.47
0.05 0.03 0.03 0.03 0.03 0.03 0.02 0.01 0.03 0.04 0.09 0.18 0.56 0.46 0.63 0.56 0.27 0.06 0.17 0.17 0.44 0.69 0.52 0.44 0.48 0.53 0.49
0.09 0.04 0.02 0.03 0.05 0.07 0.16 0.07 0.18 0.05 0.05 0.09 0.21 0.44 0.55 0.23 0.38 0.30 0.20 0.45 0.39 0.46 0.56 0.47 0.47 0.60 0.57
0.11 0.11 0.06 0.05 0.05 0.05 0.19 0.27 0.35 0.19 0.11 0.06 0.06 0.09 0.19 0.29 0.44 0.22 0.25 0.31 0.51 0.70 0.69 0.61 0.62 0.92 0.80
0.10 0.12 0.18 0.16 0.17 0.11 0.18 0.30 0.32 0.19 0.19 0.14 0.11 0.14 0.11 0.12 0.29 0.51 0.51 0.46 0.60 0.68 0.70 0.90 0.81 0.89 0.70
0.16 0.20 0.27 0.21 0.16 0.17 0.17 0.20 0.18 0.15 0.16 0.19 0.23 0.46 0.58 0.22 0.14 0.48 1.01 0.85 0.63 0.58 0.61 0.69 0.91 1.00 0.71

GFSFLT2_prec_precacc_084.txt.gz
Total_Precipitation_Accumulation
0.81 0.79 0.80 0.80 0.73 0.57 0.50 0.41 0.38 0.42 0.40 0.33 0.26 0.24 0.22 0.21 0.22 0.26 0.29 0.33 0.38 0.49 0.75 1.09 1.05 0.91 1.00
1.03 0.94 0.79 0.61 0.43 0.26 0.17 0.11 0.07 0.12 0.10 0.08 0.09 0.10 0.08 0.08 0.12 0.14 0.16 0.21 0.29 0.35 0.42 0.47 0.51 0.52 0.56
0.27 0.22 0.20 0.18 0.13 0.06 0.04 0.02 0.02 0.05 0.05 0.04 0.04 0.03 0.04 0.05 0.09 0.10 0.13 0.12 0.11 0.10 0.12 0.14 0.16 0.20 0.26
0.20 0.19 0.16 0.09 0.05 0.02 0.02 0.01 0.01 0.00 0.02 0.01 0.02 0.04 0.05 0.05 0.03 0.02 0.01 0.02 0.03 0.07 0.10 0.12 0.12 0.12 0.14
0.32 0.25 0.12 0.03 0.01 0.01 0.02 0.02 0.02 0.01 0.01 0.02 0.03 0.02 0.00 0.00 0.00 0.01 0.02 0.07 0.11 0.14 0.17 0.17 0.19 0.21 0.22
0.34 0.14 0.02 0.00 0.01 0.05 0.16 0.14 0.10 0.00 0.03 0.02 0.00 0.00 0.00 0.00 0.02 0.03 0.04 0.05 0.06 0.10 0.14 0.16 0.17 0.20 0.23
0.04 0.01 0.02 0.05 0.23 0.23 0.14 0.16 0.10 0.01 0.05 0.07 0.01 0.01 0.01 0.01 0.01 0.01 0.03 0.04 0.07 0.10 0.13 0.15 0.15 0.15 0.15
0.01 0.03 0.08 0.09 0.10 0.23 0.22 0.13 0.05 0.01 0.03 0.14 0.02 0.01 0.00 0.00 0.01 0.01 0.03 0.12 0.18 0.19 0.21 0.21 0.18 0.17 0.17
0.07 0.05 0.02 0.01 0.01 0.13 0.20 0.20 0.13 0.01 0.01 0.09 0.04 0.02 0.01 0.00 0.00 0.04 0.06 0.07 0.05 0.06 0.07 0.09 0.11 0.13 0.15
0.01 0.00 0.00 0.00 0.01 0.04 0.19 0.56 0.28 0.22 0.01 0.29 0.16 0.12 0.39 0.03 0.01 0.02 0.01 0.01 0.05 0.05 0.05 0.07 0.09 0.12 0.16
0.00 0.00 0.00 0.01 0.01 0.01 0.07 0.48 0.77 0.49 0.02 0.61 0.72 0.13 0.38 0.14 0.01 0.01 0.01 0.08 0.17 0.16 0.18 0.23 0.25 0.30 0.40
0.01 0.01 0.02 0.02 0.01 0.01 0.02 0.06 0.21 0.51 0.18 0.37 1.14 0.39 0.65 0.37 0.05 0.01 0.01 0.13 0.38 0.50 0.51 0.52 0.53 0.47 0.47
0.05 0.03 0.03 0.03 0.03 0.03 0.02 0.01 0.03 0.04 0.09 0.18 0.56 0.46 0.63 0.56 0.27 0.06 0.17 0.17 0.44 0.69 0.52 0.44 0.48 0.53 0.49
0.09 0.04 0.02 0.03 0.05 0.07 0.16 0.07 0.18 0.05 0.05 0.09 0.21 0.44 0.55 0.23 0.38 0.30 0.20 0.45 0.39 0.46 0.56 0.47 0.47 0.60 0.57
0.11 0.11 0.06 0.05 0.05 0.05 0.19 0.27 0.35 0.19 0.11 0.06 0.06 0.09 0.19 0.29 0.45 0.22 0.25 0.31 0.51 0.70 0.69 0.61 0.62 0.92 0.80
0.10 0.12 0.18 0.16 0.17 0.11 0.18 0.30 0.32 0.19 0.19 0.14 0.11 0.14 0.11 0.12 0.29 0.51 0.51 0.46 0.60 0.68 0.70 0.90 0.81 0.89 0.70
0.16 0.20 0.27 0.21 0.16 0.17 0.17 0.20 0.18 0.15 0.16 0.19 0.23 0.46 0.58 0.23 0.14 0.48 1.01 0.85 0.63 0.58 0.61 0.69 0.91 1.00 0.71

GFSFLT2_prec_precacc_087.txt.gz
Total_Precipitation_Accumulation
0.82 0.79 0.81 0.80 0.73 0.57 0.50 0.41 0.38 0.42 0.40 0.33 0.26 0.24 0.22 0.22 0.22 0.26 0.29 0.34 0.38 0.50 0.76 1.17 1.14 0.94 1.02
1.03 0.94 0.79 0.61 0.43 0.26 0.17 0.11 0.07 0.12 0.10 0.08 0.09 0.10 0.08 0.08 0.12 0.14 0.16 0.21 0.29 0.37 0.45 0.53 0.62 0.58 0.59
0.27 0.22 0.20 0.18 0.13 0.06 0.04 0.02 0.02 0.05 0.05 0.04 0.04 0.03 0.04 0.05 0.09 0.10 0.13 0.12 0.11 0.10 0.14 0.17 0.20 0.28 0.32
0.20 0.19 0.16 0.09 0.05 0.02 0.02 0.01 0.01 0.00 0.02 0.01 0.02 0.04 0.05 0.05 0.03 0.02 0.01 0.02 0.03 0.07 0.10 0.12 0.13 0.13 0.16
0.32 0.25 0.12 0.03 0.01 0.01 0.02 0.02 0.02 0.01 0.01 0.02 0.03 0.02 0.00 0.00 0.00 0.01 0.02 0.07 0.11 0.14 0.17 0.17 0.19 0.21 0.22
0.34 0.14 0.02 0.00 0.01 0.05 0.16 0.14 0.10 0.00 0.03 0.02 0.00 0.00 0.00 0.00 0.02 0.03 0.04 0.05 0.06 0.10 0.14 0.16 0.17 0.20 0.23
0.04 0.01 0.02 0.05 0.23 0.23 0.14 0.16 0.10 0.01 0.05 0.07 0.01 0.01 0.01 0.01 0.01 0.01 0.03 0.04 0.07 0.10 0.13 0.15 0.15 0.15 0.15
0.01 0.03 0.08 0.09 0.10 0.23 0.22 0.13 0.05 0.01 0.03 0.14 0.02 0.01 0.00 0.00 0.01 0.01 0.03 0.12 0.18 0.19 0.21 0.21 0.18 0.17 0.17
0.07 0.05 0.02 0.01 0.01 0.13 0.20 0.20 0.13 0.01 0.01 0.09 0.04 0.02 0.01 0.00 0.00 0.04 0.06 0.07 0.05 0.06 0.07 0.09 0.11 0.13 0.15
0.01 0.00 0.00 0.00 0.01 0.04 0.19 0.56 0.28 0.22 0.01 0.29 0.16 0.12 0.39 0.03 0.01 0.02 0.01 0.01 0.05 0.05 0.05 0.07 0.09 0.12 0.16
0.00 0.00 0.00 0.01 0.01 0.01 0.07 0.48 0.77 0.49 0.02 0.61 0.72 0.13 0.38 0.14 0.01 0.01 0.01 0.08 0.17 0.16 0.18 0.23 0.25 0.30 0.40
0.01 0.01 0.02 0.02 0.01 0.01 0.02 0.06 0.21 0.51 0.18 0.37 1.14 0.39 0.65 0.37 0.05 0.01 0.01 0.13 0.38 0.50 0.51 0.52 0.53 0.47 0.47
0.05 0.03 0.03 0.03 0.03 0.03 0.02 0.01 0.03 0.04 0.09 0.18 0.56 0.46 0.63 0.56 0.27 0.06 0.17 0.17 0.44 0.69 0.52 0.44 0.48 0.53 0.49
0.09 0.04 0.02 0.03 0.05 0.07 0.16 0.07 0.18 0.05 0.05 0.09 0.21 0.44 0.55 0.23 0.38 0.30 0.20 0.45 0.39 0.46 0.56 0.47 0.47 0.60 0.57
0.11 0.11 0.06 0.05 0.05 0.05 0.19 0.27 0.35 0.19 0.11 0.06 0.06 0.09 0.19 0.29 0.45 0.22 0.25 0.31 0.51 0.70 0.69 0.61 0.62 0.92 0.80
0.10 0.12 0.18 0.16 0.17 0.11 0.18 0.30 0.32 0.19 0.19 0.14 0.11 0.14 0.11 0.12 0.29 0.51 0.51 0.46 0.60 0.68 0.70 0.90 0.81 0.89 0.70
0.16 0.20 0.27 0.21 0.16 0.17 0.17 0.20 0.18 0.15 0.16 0.19 0.23 0.46 0.58 0.23 0.14 0.48 1.01 0.85 0.63 0.58 0.61 0.69 0.91 1.00 0.71

GFSFLT2_prec_precacc_090.txt.gz
Total_Precipitation_Accumulation
0.82 0.80 0.81 0.80 0.73 0.57 0.50 0.41 0.38 0.42 0.40 0.33 0.26 0.24 0.23 0.22 0.23 0.26 0.29 0.34 0.39 0.52 0.78 1.18 1.16 0.96 1.04
1.04 0.95 0.80 0.61 0.43 0.26 0.17 0.11 0.07 0.12 0.10 0.08 0.09 0.10 0.08 0.08 0.12 0.14 0.16 0.21 0.30 0.38 0.48 0.56 0.67 0.60 0.60
0.27 0.22 0.20 0.18 0.13 0.06 0.04 0.02 0.02 0.05 0.05 0.04 0.04 0.03 0.04 0.05 0.09 0.10 0.13 0.12 0.11 0.11 0.17 0.21 0.23 0.31 0.36
0.21 0.20 0.17 0.09 0.05 0.02 0.02 0.01 0.01 0.00 0.02 0.01 0.02 0.04 0.05 0.05 0.03 0.02 0.01 0.02 0.03 0.07 0.10 0.14 0.15 0.15 0.18
0.32 0.25 0.12 0.03 0.01 0.01 0.02 0.02 0.02 0.01 0.01 0.02 0.03 0.02 0.00 0.00 0.00 0.01 0.02 0.07 0.11 0.14 0.17 0.17 0.19 0.21 0.23
0.34 0.14 0.02 0.00 0.01 0.05 0.16 0.14 0.10 0.00 0.03 0.02 0.00 0.00 0.00 0.00 0.02 0.03 0.04 0.05 0.06 0.10 0.14 0.16 0.17 0.20 0.23
0.04 0.01 0.02 0.05 0.23 0.23 0.14 0.16 0.10 0.01 0.05 0.07 0.01 0.01 0.01 0.01 0.01 0.01 0.03 0.04 0.07 0.10 0.13 0.15 0.15 0.15 0.15
0.01 0.03 0.08 0.09 0.10 0.23 0.22 0.13 0.05 0.01 0.03 0.14 0.02 0.01 0.00 0.00 0.01 0.01 0.03 0.12 0.18 0.19 0.21 0.21 0.18 0.17 0.17
0.07 0.05 0.02 0.01 0.01 0.13 0.20 0.20 0.13 0.01 0.01 0.09 0.04 0.02 0.01 0.00 0.00 0.04 0.06 0.07 0.05 0.06 0.07 0.09 0.11 0.13 0.15
0.01 0.00 0.00 0.00 0.01 0.04 0.19 0.56 0.28 0.22 0.01 0.29 0.16 0.12 0.39 0.03 0.01 0.02 0.01 0.01 0.05 0.05 0.05 0.07 0.09 0.12 0.16
0.00 0.00 0.00 0.01 0.01 0.01 0.07 0.48 0.77 0.49 0.02 0.61 0.72 0.13 0.38 0.14 0.01 0.01 0.01 0.08 0.17 0.16 0.18 0.23 0.25 0.30 0.40
0.01 0.01 0.02 0.02 0.01 0.01 0.02 0.06 0.21 0.51 0.18 0.37 1.14 0.39 0.65 0.37 0.05 0.01 0.01 0.13 0.38 0.50 0.51 0.52 0.53 0.47 0.47
0.05 0.03 0.03 0.03 0.03 0.03 0.02 0.01 0.03 0.04 0.09 0.18 0.56 0.46 0.63 0.56 0.27 0.06 0.17 0.17 0.44 0.69 0.52 0.44 0.48 0.53 0.49
0.09 0.04 0.02 0.03 0.05 0.07 0.16 0.07 0.18 0.05 0.05 0.09 0.21 0.44 0.55 0.23 0.38 0.30 0.20 0.45 0.39 0.46 0.56 0.47 0.47 0.60 0.57
0.11 0.11 0.06 0.05 0.05 0.05 0.19 0.27 0.35 0.19 0.11 0.06 0.06 0.09 0.19 0.29 0.45 0.22 0.25 0.31 0.51 0.70 0.69 0.61 0.62 0.92 0.80
0.10 0.12 0.18 0.16 0.17 0.11 0.18 0.30 0.32 0.19 0.19 0.14 0.11 0.14 0.11 0.12 0.29 0.51 0.51 0.46 0.60 0.68 0.70 0.90 0.81 0.89 0.70
0.16 0.20 0.27 0.21 0.16 0.17 0.17 0.20 0.18 0.15 0.16 0.19 0.23 0.46 0.58 0.23 0.14 0.48 1.01 0.85 0.63 0.58 0.61 0.69 0.91 1.00 0.71

GFSFLT2_prec_precacc_093.txt.gz
Total_Precipitation_Accumulation
0.82 0.80 0.82 0.80 0.74 0.58 0.50 0.41 0.38 0.42 0.40 0.33 0.26 0.24 0.23 0.22 0.23 0.26 0.29 0.34 0.39 0.53 0.79 1.18 1.16 0.96 1.08
1.04 0.95 0.80 0.62 0.44 0.27 0.17 0.11 0.07 0.12 0.10 0.08 0.09 0.10 0.08 0.08 0.12 0.14 0.16 0.21 0.30 0.40 0.49 0.58 0.70 0.62 0.61
0.27 0.22 0.20 0.18 0.13 0.07 0.04 0.02 0.02 0.05 0.05 0.04 0.04 0.03 0.04 0.05 0.09 0.10 0.13 0.12 0.11 0.12 0.21 0.23 0.27 0.36 0.38
0.21 0.20 0.17 0.09 0.05 0.02 0.02 0.01 0.01 0.00 0.02 0.01 0.02 0.04 0.05 0.05 0.03 0.02 0.01 0.02 0.03 0.07 0.11 0.16 0.17 0.16 0.19
0.32 0.25 0.12 0.04 0.01 0.01 0.02 0.02 0.02 0.01 0.01 0.02 0.03 0.02 0.00 0.00 0.00 0.01 0.02 0.07 0.11 0.14 0.17 0.18 0.20 0.23 0.23
0.34 0.14 0.02 0.00 0.01 0.05 0.16 0.14 0.10 0.00 0.03 0.02 0.00 0.00 0.00 0.00 0.02 0.03 0.04 0.05 0.06 0.10 0.14 0.16 0.17 0.20 0.23
0.04 0.01 0.02 0.05 0.23 0.24 0.14 0.16 0.10 0.01 0.05 0.07 0.01 0.01 0.01 0.01 0.01 0.01 0.03 0.04 0.07 0.10 0.13 0.15 0.15 0.15 0.15
0.01 0.03 0.08 0.09 0.10 0.23 0.22 0.13 0.05 0.01 0.03 0.14 0.02 0.01 0.00 0.00 0.01 0.01 0.03 0.12 0.18 0.19 0.21 0.21 0.18 0.17 0.17
0.07 0.05 0.02 0.01 0.01 0.13 0.20 0.20 0.13 0.01 0.01 0.09 0.04 0.02 0.01 0.00 0.00 0.04 0.06 0.07 0.05 0.06 0.07 0.09 0.11 0.13 0.15
0.01 0.00 0.00 0.00 0.01 0.04 0.19 0.56 0.28 0.22 0.01 0.29 0.16 0.12 0.39 0.03 0.01 0.02 0.01 0.01 0.05 0.05 0.05 0.07 0.09 0.12 0.16
0.00 0.00 0.00 0.01 0.01 0.01 0.07 0.48 0.77 0.49 0.02 0.61 0.72 0.13 0.38 0.14 0.01 0.01 0.01 0.08 0.17 0.16 0.18 0.23 0.25 0.30 0.40
0.01 0.01 0.02 0.02 0.01 0.01 0.02 0.06 0.21 0.51 0.18 0.37 1.14 0.39 0.65 0.37 0.05 0.01 0.01 0.13 0.38 0.50 0.51 0.52 0.53 0.47 0.47
0.05 0.03 0.03 0.03 0.03 0.03 0.02 0.01 0.03 0.04 0.09 0.18 0.56 0.46 0.63 0.56 0.27 0.06 0.17 0.17 0.44 0.69 0.52 0.44 0.48 0.53 0.49
0.09 0.04 0.02 0.03 0.05 0.07 0.16 0.07 0.18 0.05 0.05 0.09 0.21 0.44 0.55 0.23 0.38 0.30 0.20 0.45 0.39 0.46 0.56 0.47 0.47 0.60 0.57
0.11 0.11 0.06 0.05 0.05 0.05 0.19 0.27 0.35 0.19 0.11 0.06 0.06 0.09 0.19 0.29 0.45 0.22 0.25 0.31 0.51 0.70 0.69 0.61 0.62 0.92 0.80
0.10 0.12 0.18 0.16 0.17 0.11 0.18 0.30 0.32 0.19 0.19 0.14 0.11 0.14 0.11 0.12 0.29 0.51 0.51 0.46 0.60 0.68 0.70 0.90 0.81 0.89 0.70
0.16 0.20 0.27 0.21 0.16 0.17 0.17 0.20 0.18 0.15 0.16 0.19 0.23 0.46 0.58 0.23 0.14 0.48 1.01 0.85 0.63 0.58 0.61 0.69 0.91 1.00 0.71

GFSFLT2_prec_precacc_096.txt.gz
Total_Precipitation_Accumulation
0.82 0.80 0.82 0.80 0.74 0.58 0.50 0.41 0.38 0.43 0.40 0.33 0.26 0.24 0.23 0.22 0.23 0.26 0.29 0.35 0.39 0.53 0.79 1.18 1.16 0.97 1.09
1.04 0.95 0.80 0.62 0.44 0.27 0.17 0.11 0.07 0.12 0.10 0.08 0.09 0.10 0.08 0.08 0.12 0.14 0.16 0.21 0.30 0.43 0.50 0.59 0.71 0.63 0.61
0.27 0.22 0.20 0.18 0.13 0.07 0.04 0.02 0.02 0.05 0.05 0.04 0.04 0.03 0.04 0.05 0.09 0.10 0.13 0.12 0.11 0.14 0.24 0.25 0.28 0.42 0.42
0.21 0.21 0.17 0.09 0.05 0.02 0.02 0.01 0.01 0.00 0.02 0.01 0.02 0.04 0.05 0.05 0.03 0.02 0.01 0.02 0.03 0.07 0.16 0.20 0.20 0.20 0.22
0.32 0.25 0.13 0.04 0.01 0.01 0.02 0.02 0.02 0.01 0.01 0.02 0.03 0.02 0.00 0.00 0.00 0.01 0.02 0.07 0.11 0.14 0.17 0.20 0.23 0.27 0.26
0.35 0.14 0.02 0.00 0.01 0.05 0.16 0.14 0.11 0.00 0.03 0.02 0.00 0.00 0.00 0.00 0.02 0.03 0.04 0.05 0.06 0.10 0.14 0.16 0.17 0.21 0.25
0.04 0.01 0.02 0.05 0.23 0.24 0.14 0.16 0.11 0.01 0.05 0.07 0.01 0.01 0.01 0.01 0.01 0.01 0.03 0.04 0.07 0.10 0.13 0.15 0.15 0.15 0.15
0.01 0.03 0.08 0.09 0.10 0.23 0.22 0.13 0.05 0.01 0.03 0.14 0.02 0.01 0.00 0.00 0.01 0.01 0.03 0.12 0.18 0.19 0.21 0.21 0.18 0.17 0.17
0.07 0.05 0.02 0.01 0.01 0.13 0.20 0.20 0.13 0.01 0.01 0.09 0.04 0.02 0.01 0.00 0.00 0.04 0.06 0.07 0.05 0.06 0.07 0.09 0.11 0.13 0.15
0.01 0.00 0.00 0.00 0.01 0.04 0.19 0.56 0.28 0.22 0.01 0.29 0.16 0.12 0.39 0.03 0.01 0.02 0.01 0.01 0.05 0.05 0.05 0.07 0.09 0.12 0.16
0.00 0.00 0.00 0.01 0.01 0.01 0.07 0.48 0.77 0.49 0.02 0.61 0.72 0.13 0.38 0.14 0.01 0.01 0.01 0.08 0.17 0.16 0.18 0.23 0.25 0.30 0.40
0.01 0.01 0.02 0.02 0.01 0.01 0.02 0.06 0.21 0.51 0.18 0.37 1.14 0.39 0.65 0.37 0.05 0.01 0.01 0.13 0.38 0.50 0.51 0.52 0.53 0.47 0.47
0.05 0.03 0.03 0.03 0.03 0.03 0.02 0.01 0.03 0.04 0.09 0.18 0.56 0.46 0.63 0.56 0.27 0.06 0.17 0.17 0.44 0.69 0.52 0.44 0.48 0.53 0.49
0.09 0.04 0.02 0.03 0.05 0.07 0.16 0.07 0.18 0.05 0.05 0.09 0.21 0.44 0.55 0.23 0.38 0.30 0.20 0.45 0.39 0.46 0.56 0.47 0.47 0.60 0.57
0.11 0.11 0.06 0.05 0.05 0.05 0.19 0.27 0.35 0.19 0.11 0.06 0.06 0.09 0.19 0.29 0.45 0.22 0.25 0.31 0.51 0.70 0.69 0.61 0.62 0.92 0.80
0.10 0.12 0.18 0.16 0.17 0.11 0.18 0.30 0.32 0.19 0.19 0.14 0.11 0.14 0.11 0.12 0.29 0.51 0.51 0.46 0.60 0.68 0.70 0.90 0.81 0.89 0.70
0.16 0.20 0.27 0.21 0.16 0.17 0.17 0.20 0.18 0.15 0.16 0.19 0.23 0.46 0.58 0.23 0.14 0.48 1.01 0.85 0.63 0.58 0.61 0.69 0.91 1.00 0.71

GFSFLT2_prec_precacc_099.txt.gz
Total_Precipitation_Accumulation
0.82 0.80 0.82 0.80 0.74 0.58 0.50 0.41 0.38 0.43 0.40 0.33 0.26 0.24 0.23 0.22 0.23 0.26 0.29 0.35 0.40 0.53 0.80 1.19 1.17 0.97 1.09
1.04 0.95 0.80 0.62 0.44 0.27 0.17 0.11 0.07 0.14 0.11 0.08 0.09 0.10 0.08 0.08 0.12 0.14 0.16 0.21 0.30 0.43 0.51 0.60 0.72 0.64 0.62
0.28 0.22 0.20 0.18 0.13 0.07 0.04 0.02 0.02 0.05 0.05 0.04 0.04 0.03 0.04 0.05 0.09 0.10 0.13 0.12 0.11 0.15 0.26 0.27 0.29 0.43 0.44
0.21 0.21 0.17 0.09 0.05 0.02 0.02 0.01 0.01 0.00 0.02 0.01 0.02 0.04 0.05 0.05 0.03 0.02 0.01 0.02 0.03 0.07 0.18 0.27 0.24 0.24 0.25
0.32 0.25 0.13 0.04 0.01 0.01 0.02 0.02 0.02 0.01 0.01 0.02 0.03 0.02 0.00 0.00 0.00 0.01 0.02 0.07 0.11 0.14 0.18 0.24 0.30 0.35 0.29
0.35 0.14 0.02 0.00 0.01 0.05 0.16 0.14 0.11 0.00 0.03 0.02 0.00 0.00 0.00 0.00 0.02 0.03 0.04 0.05 0.06 0.10 0.14 0.16 0.18 0.24 0.30
0.04 0.01 0.02 0.05 0.23 0.24 0.14 0.16 0.11 0.01 0.05 0.07 0.01 0.01 0.01 0.01 0.01 0.01 0.03 0.04 0.07 0.10 0.13 0.15 0.15 0.15 0.16
0.01 0.03 0.08 0.09 0.10 0.23 0.22 0.13 0.05 0.01 0.03 0.14 0.02 0.01 0.00 0.00 0.01 0.01 0.03 0.12 0.18 0.19 0.21 0.21 0.18 0.17 0.17
0.07 0.05 0.02 0.01 0.01 0.13 0.20 0.20 0.13 0.01 0.01 0.09 0.04 0.02 0.01 0.00 0.00 0.04 0.06 0.07 0.05 0.06 0.07 0.09 0.11 0.13 0.15
0.01 0.00 0.00 0.00 0.01 0.04 0.19 0.56 0.28 0.22 0.01 0.29 0.16 0.12 0.39 0.03 0.01 0.02 0.01 0.01 0.05 0.05 0.05 0.07 0.09 0.12 0.16
0.00 0.00 0.00 0.01 0.01 0.01 0.07 0.48 0.77 0.49 0.02 0.61 0.72 0.13 0.38 0.14 0.01 0.01 0.01 0.08 0.17 0.16 0.18 0.23 0.25 0.30 0.40
0.01 0.01 0.02 0.02 0.01 0.01 0.02 0.06 0.21 0.51 0.18 0.37 1.14 0.39 0.65 0.37 0.05 0.01 0.01 0.13 0.38 0.50 0.51 0.52 0.53 0.47 0.47
0.05 0.03 0.03 0.03 0.03 0.03 0.02 0.01 0.03 0.04 0.09 0.18 0.56 0.46 0.63 0.56 0.27 0.06 0.17 0.17 0.44 0.69 0.52 0.44 0.48 0.53 0.49
0.09 0.04 0.02 0.03 0.05 0.07 0.16 0.07 0.18 0.05 0.05 0.09 0.21 0.44 0.55 0.23 0.38 0.30 0.20 0.45 0.39 0.46 0.56 0.47 0.47 0.60 0.57
0.11 0.11 0.06 0.05 0.05 0.05 0.19 0.27 0.35 0.19 0.11 0.06 0.06 0.09 0.19 0.29 0.45 0.22 0.25 0.31 0.51 0.70 0.69 0.61 0.62 0.92 0.80
0.10 0.12 0.18 0.16 0.17 0.11 0.18 0.30 0.32 0.19 0.19 0.14 0.11 0.14 0.11 0.12 0.29 0.51 0.51 0.46 0.60 0.68 0.70 0.90 0.81 0.89 0.70
0.17 0.20 0.27 0.21 0.16 0.17 0.17 0.20 0.18 0.15 0.16 0.19 0.23 0.46 0.58 0.23 0.14 0.48 1.01 0.85 0.63 0.58 0.61 0.69 0.91 1.00 0.71

GFSFLT2_prec_precacc_102.txt.gz
Total_Precipitation_Accumulation
0.82 0.80 0.82 0.80 0.74 0.58 0.50 0.41 0.38 0.43 0.40 0.33 0.26 0.24 0.23 0.22 0.23 0.26 0.29 0.35 0.40 0.54 0.80 1.19 1.18 0.97 1.09
1.04 0.95 0.80 0.62 0.44 0.27 0.17 0.11 0.07 0.14 0.11 0.08 0.09 0.10 0.08 0.08 0.12 0.14 0.16 0.21 0.31 0.43 0.51 0.61 0.73 0.65 0.63
0.28 0.22 0.20 0.18 0.13 0.07 0.04 0.02 0.02 0.05 0.05 0.04 0.04 0.03 0.04 0.05 0.09 0.10 0.13 0.12 0.11 0.15 0.27 0.29 0.31 0.44 0.45
0.21 0.21 0.17 0.09 0.05 0.02 0.02 0.01 0.01 0.00 0.02 0.01 0.02 0.04 0.05 0.05 0.03 0.02 0.01 0.02 0.03 0.07 0.19 0.33 0.28 0.27 0.26
0.32 0.25 0.13 0.04 0.01 0.01 0.02 0.02 0.02 0.01 0.01 0.02 0.03 0.02 0.00 0.00 0.00 0.01 0.02 0.07 0.11 0.14 0.18 0.30 0.38 0.40 0.33
0.35 0.14 0.02 0.00 0.01 0.05 0.16 0.14 0.11 0.00 0.03 0.02 0.00 0.00 0.00 0.00 0.02 0.03 0.04 0.05 0.06 0.10 0.14 0.17 0.22 0.31 0.32
0.04 0.01 0.02 0.05 0.23 0.24 0.14 0.16 0.11 0.01 0.05 0.07 0.01 0.01 0.01 0.01 0.01 0.01 0.03 0.04 0.07 0.10 0.13 0.15 0.15 0.15 0.16
0.01 0.03 0.08 0.09 0.10 0.23 0.22 0.13 0.05 0.01 0.03 0.14 0.02 0.01 0.00 0.00 0.01 0.01 0.03 0.12 0.18 0.19 0.21 0.21 0.18 0.17 0.17
0.07 0.05 0.02 0.01 0.01 0.13 0.20 0.20 0.13 0.01 0.01 0.09 0.04 0.02 0.01 0.00 0.00 0.04 0.06 0.07 0.05 0.06 0.07 0.09 0.11 0.13 0.15
0.01 0.00 0.00 0.00 0.01 0.04 0.19 0.56 0.28 0.22 0.01 0.29 0.16 0.12 0.39 0.03 0.01 0.02 0.01 0.01 0.05 0.05 0.05 0.07 0.09 0.12 0.16
0.00 0.00 0.00 0.01 0.01 0.01 0.07 0.48 0.77 0.49 0.02 0.61 0.72 0.13 0.38 0.14 0.01 0.01 0.01 0.08 0.17 0.16 0.18 0.23 0.25 0.30 0.40
0.01 0.01 0.02 0.02 0.01 0.01 0.02 0.06 0.21 0.51 0.18 0.37 1.14 0.39 0.65 0.37 0.05 0.01 0.01 0.13 0.38 0.50 0.51 0.52 0.53 0.47 0.47
0.05 0.03 0.03 0.03 0.03 0.03 0.02 0.01 0.03 0.04 0.09 0.18 0.56 0.46 0.63 0.56 0.27 0.06 0.17 0.17 0.44 0.69 0.52 0.44 0.48 0.53 0.49
0.09 0.04 0.02 0.03 0.05 0.07 0.16 0.07 0.18 0.05 0.05 0.09 0.21 0.44 0.55 0.23 0.38 0.30 0.20 0.45 0.39 0.46 0.56 0.47 0.47 0.60 0.57
0.11 0.11 0.06 0.05 0.05 0.05 0.19 0.27 0.35 0.19 0.11 0.06 0.06 0.09 0.19 0.29 0.45 0.22 0.25 0.31 0.51 0.70 0.69 0.61 0.62 0.92 0.80
0.10 0.12 0.18 0.16 0.17 0.11 0.18 0.30 0.32 0.19 0.19 0.14 0.11 0.14 0.11 0.12 0.29 0.51 0.51 0.46 0.60 0.68 0.70 0.90 0.81 0.89 0.70
0.17 0.20 0.27 0.21 0.16 0.17 0.17 0.20 0.18 0.15 0.16 0.19 0.23 0.46 0.58 0.23 0.14 0.48 1.01 0.85 0.63 0.58 0.61 0.69 0.91 1.00 0.71

GFSFLT2_prec_precacc_105.txt.gz
Total_Precipitation_Accumulation
0.82 0.80 0.82 0.80 0.74 0.58 0.50 0.41 0.38 0.43 0.40 0.33 0.26 0.24 0.23 0.22 0.23 0.26 0.29 0.35 0.40 0.55 0.81 1.20 1.19 0.98 1.10
1.04 0.95 0.80 0.62 0.44 0.27 0.17 0.11 0.07 0.14 0.11 0.08 0.09 0.10 0.08 0.08 0.12 0.14 0.16 0.21 0.31 0.44 0.51 0.61 0.73 0.65 0.63
0.28 0.22 0.20 0.18 0.13 0.07 0.04 0.02 0.02 0.05 0.05 0.04 0.04 0.03 0.04 0.05 0.09 0.10 0.13 0.12 0.11 0.15 0.27 0.31 0.32 0.46 0.47
0.21 0.21 0.17 0.09 0.05 0.02 0.02 0.01 0.01 0.00 0.02 0.01 0.02 0.04 0.05 0.05 0.03 0.02 0.01 0.02 0.03 0.07 0.20 0.36 0.31 0.30 0.26
0.32 0.25 0.13 0.04 0.01 0.01 0.02 0.02 0.02 0.01 0.01 0.02 0.03 0.02 0.00 0.00 0.00 0.01 0.02 0.07 0.11 0.14 0.19 0.32 0.44 0.45 0.33
0.35 0.14 0.02 0.00 0.01 0.05 0.16 0.14 0.11 0.00 0.03 0.02 0.00 0.00 0.00 0.00 0.02 0.03 0.04 0.05 0.06 0.10 0.14 0.19 0.28 0.34 0.35
0.04 0.01 0.02 0.05 0.23 0.24 0.14 0.16 0.11 0.01 0.05 0.07 0.01 0.01 0.01 0.01 0.01 0.01 0.03 0.04 0.07 0.10 0.13 0.15 0.16 0.15 0.16
0.01 0.03 0.08 0.09 0.10 0.23 0.22 0.13 0.05 0.01 0.03 0.14 0.02 0.01 0.00 0.00 0.01 0.01 0.03 0.12 0.18 0.19 0.21 0.21 0.18 0.17 0.17
0.07 0.05 0.02 0.01 0.01 0.13 0.20 0.20 0.13 0.01 0.01 0.09 0.04 0.02 0.01 0.00 0.00 0.04 0.06 0.07 0.05 0.06 0.07 0.09 0.11 0.13 0.15
0.01 0.00 0.00 0.00 0.01 0.04 0.19 0.56 0.28 0.22 0.01 0.29 0.16 0.12 0.39 0.03 0.01 0.02 0.01 0.01 0.05 0.05 0.05 0.07 0.09 0.12 0.16
0.00 0.00 0.00 0.01 0.01 0.01 0.07 0.48 0.77 0.49 0.02 0.61 0.72 0.13 0.38 0.14 0.01 0.01 0.01 0.08 0.17 0.16 0.18 0.23 0.25 0.30 0.40
0.01 0.01 0.02 0.02 0.01 0.01 0.02 0.06 0.21 0.51 0.18 0.37 1.14 0.39 0.65 0.37 0.05 0.01 0.01 0.13 0.38 0.50 0.51 0.52 0.53 0.47 0.47
0.05 0.03 0.03 0.03 0.03 0.03 0.02 0.01 0.03 0.04 0.09 0.18 0.56 0.46 0.63 0.56 0.27 0.06 0.17 0.17 0.44 0.69 0.52 0.44 0.48 0.53 0.49
0.09 0.04 0.02 0.03 0.05 0.07 0.16 0.07 0.18 0.05 0.05 0.09 0.21 0.44 0.55 0.23 0.38 0.30 0.20 0.45 0.39 0.46 0.56 0.47 0.47 0.60 0.57
0.11 0.11 0.06 0.05 0.05 0.05 0.19 0.27 0.35 0.19 0.11 0.06 0.06 0.09 0.19 0.29 0.45 0.22 0.25 0.31 0.51 0.70 0.69 0.61 0.62 0.92 0.80
0.10 0.12 0.18 0.16 0.17 0.11 0.18 0.30 0.32 0.19 0.19 0.14 0.11 0.14 0.11 0.12 0.29 0.51 0.51 0.46 0.60 0.68 0.70 0.90 0.81 0.89 0.70
0.17 0.20 0.27 0.21 0.16 0.17 0.17 0.20 0.18 0.15 0.16 0.19 0.23 0.46 0.58 0.23 0.14 0.48 1.01 0.85 0.63 0.58 0.61 0.69 0.91 1.00 0.71

GFSFLT2_prec_precacc_108.txt.gz
Total_Precipitation_Accumulation
0.82 0.80 0.82 0.80 0.74 0.58 0.50 0.41 0.38 0.43 0.40 0.33 0.26 0.24 0.23 0.22 0.23 0.26 0.29 0.35 0.40 0.55 0.82 1.21 1.20 0.99 1.10
1.04 0.95 0.80 0.62 0.44 0.27 0.17 0.11 0.07 0.14 0.11 0.08 0.09 0.10 0.08 0.08 0.12 0.14 0.16 0.21 0.31 0.44 0.52 0.61 0.74 0.67 0.65
0.28 0.22 0.20 0.18 0.13 0.07 0.04 0.02 0.02 0.05 0.05 0.04 0.04 0.03 0.04 0.05 0.09 0.10 0.13 0.12 0.11 0.15 0.27 0.31 0.34 0.47 0.50
0.21 0.21 0.17 0.09 0.05 0.02 0.02 0.01 0.01 0.00 0.02 0.01 0.02 0.04 0.05 0.05 0.03 0.02 0.01 0.02 0.04 0.08 0.20 0.36 0.34 0.33 0.27
0.32 0.25 0.13 0.04 0.01 0.01 0.02 0.02 0.02 0.01 0.01 0.02 0.03 0.02 0.00 0.00 0.00 0.01 0.02 0.07 0.11 0.14 0.19 0.32 0.47 0.50 0.34
0.35 0.14 0.02 0.00 0.01 0.05 0.16 0.14 0.11 0.00 0.03 0.02 0.00 0.00 0.00 0.00 0.02 0.03 0.04 0.05 0.06 0.10 0.14 0.19 0.31 0.37 0.36
0.04 0.01 0.02 0.05 0.23 0.24 0.14 0.16 0.11 0.01 0.05 0.07 0.01 0.01 0.01 0.01 0.01 0.01 0.03 0.04 0.07 0.10 0.13 0.15 0.18 0.16 0.16
0.01 0.03 0.08 0.09 0.10 0.23 0.22 0.13 0.05 0.01 0.03 0.14 0.02 0.01 0.00 0.00 0.01 0.01 0.03 0.12 0.18 0.19 0.21 0.21 0.18 0.17 0.17
0.07 0.05 0.02 0.01 0.01 0.13 0.20 0.20 0.13 0.01 0.01 0.09 0.04 0.02 0.01 0.00 0.00 0.04 0.06 0.07 0.05 0.06 0.07 0.09 0.11 0.13 0.15
0.01 0.00 0.00 0.00 0.01 0.04 0.19 0.56 0.28 0.22 0.01 0.29 0.16 0.12 0.39 0.03 0.01 0.02 0.01 0.01 0.05 0.05 0.05 0.07 0.09 0.12 0.16
0.00 0.00 0.00 0.01 0.01 0.01 0.07 0.48 0.77 0.49 0.02 0.61 0.72 0.13 0.38 0.14 0.01 0.01 0.01 0.08 0.17 0.16 0.18 0.23 0.25 0.30 0.40
0.01 0.01 0.02 0.02 0.01 0.01 0.02 0.06 0.21 0.51 0.18 0.37 1.14 0.39 0.65 0.37 0.05 0.01 0.01 0.13 0.38 0.50 0.51 0.52 0.53 0.47 0.47
0.05 0.03 0.03 0.03 0.03 0.03 0.02 0.01 0.03 0.04 0.09 0.18 0.56 0.46 0.63 0.56 0.27 0.06 0.17 0.17 0.44 0.69 0.52 0.44 0.48 0.53 0.49
0.11 0.05 0.02 0.03 0.05 0.07 0.16 0.07 0.18 0.05 0.05 0.09 0.21 0.44 0.55 0.23 0.38 0.30 0.20 0.45 0.39 0.46 0.56 0.47 0.47 0.60 0.57
0.23 0.15 0.07 0.07 0.06 0.05 0.19 0.27 0.35 0.19 0.11 0.06 0.06 0.09 0.19 0.29 0.45 0.22 0.25 0.31 0.51 0.70 0.69 0.61 0.62 0.92 0.80
0.24 0.17 0.21 0.17 0.17 0.11 0.18 0.30 0.32 0.19 0.19 0.14 0.11 0.14 0.11 0.12 0.29 0.51 0.51 0.46 0.60 0.68 0.70 0.90 0.81 0.89 0.70
0.28 0.27 0.31 0.22 0.16 0.17 0.17 0.20 0.18 0.15 0.16 0.19 0.23 0.46 0.58 0.23 0.14 0.48 1.01 0.85 0.63 0.58 0.61 0.69 0.91 1.00 0.71